Wetterdaten: Freitag, 20.04.2018
Datum Zeit Temp. Aussen Temp. o. S. +5cm Feuchte Auss BlattFeu 1 Luftdruck Regen Sonnenschein Regendauer Solar Windben Empfang
20.04.2018 00:00 17,9 C 16,7 C 11,7 C 62 % 0 lf 1022,9 hPa 0,0 l/m 0 min 0 min 0 W/m 11,3 km/h (2 Bft) 97,87 %
20.04.2018 00:02 17,8 C 16,7 C 11,7 C 62 % 0 lf 1022,9 hPa 0,0 l/m 0 min 0 min 0 W/m 11,3 km/h (2 Bft) 92,86 %
20.04.2018 00:04 17,8 C 16,7 C 11,7 C 62 % 0 lf 1022,9 hPa 0,0 l/m 0 min 0 min 0 W/m 9,0 km/h (2 Bft) 91,49 %
20.04.2018 00:08 17,7 C 16,7 C 11,7 C 62 % 0 lf 1022,9 hPa 0,0 l/m 0 min 0 min 0 W/m 9,0 km/h (2 Bft) 95,89 %
20.04.2018 00:10 17,7 C 16,7 C 11,7 C 62 % 0 lf 1022,9 hPa 0,0 l/m 0 min 0 min 0 W/m 11,3 km/h (2 Bft) 94,92 %
20.04.2018 00:12 17,7 C 16,7 C 11,7 C 62 % 0 lf 1022,9 hPa 0,0 l/m 0 min 0 min 0 W/m 9,0 km/h (2 Bft) 91,30 %
20.04.2018 00:14 17,6 C 16,7 C 11,7 C 62 % 0 lf 1022,9 hPa 0,0 l/m 0 min 0 min 0 W/m 6,8 km/h (2 Bft) 95,74 %
20.04.2018 00:16 17,6 C 16,7 C 11,7 C 62 % 0 lf 1022,9 hPa 0,0 l/m 0 min 0 min 0 W/m 6,8 km/h (2 Bft) 93,62 %
20.04.2018 00:18 17,6 C 16,7 C 11,7 C 63 % 0 lf 1022,9 hPa 0,0 l/m 0 min 0 min 0 W/m 9,0 km/h (2 Bft) 95,74 %
20.04.2018 00:20 17,6 C 16,7 C 11,7 C 63 % 0 lf 1022,9 hPa 0,0 l/m 0 min 0 min 0 W/m 6,8 km/h (2 Bft) 95,74 %
20.04.2018 00:22 17,5 C 16,7 C 11,7 C 63 % 0 lf 1022,9 hPa 0,0 l/m 0 min 0 min 0 W/m 6,8 km/h (2 Bft) 95,74 %
20.04.2018 00:24 17,5 C 16,7 C 11,7 C 63 % 0 lf 1023,0 hPa 0,0 l/m 0 min 0 min 0 W/m 9,0 km/h (2 Bft) 95,65 %
20.04.2018 00:26 17,4 C 16,7 C 11,7 C 63 % 0 lf 1022,9 hPa 0,0 l/m 0 min 0 min 0 W/m 9,0 km/h (2 Bft) 93,62 %
20.04.2018 00:28 17,4 C 16,1 C 11,7 C 63 % 0 lf 1022,9 hPa 0,0 l/m 0 min 0 min 0 W/m 4,5 km/h (1 Bft) 95,74 %
20.04.2018 00:30 17,4 C 16,1 C 11,7 C 63 % 0 lf 1023,0 hPa 0,0 l/m 0 min 0 min 0 W/m 4,5 km/h (1 Bft) 93,62 %
20.04.2018 00:32 17,4 C 16,1 C 11,7 C 64 % 0 lf 1023,0 hPa 0,0 l/m 0 min 0 min 0 W/m 4,5 km/h (1 Bft) 95,74 %
20.04.2018 00:34 17,3 C 16,1 C 11,7 C 65 % 0 lf 1023,0 hPa 0,0 l/m 0 min 0 min 0 W/m 6,8 km/h (2 Bft) 95,74 %
20.04.2018 00:36 17,3 C 16,1 C 11,7 C 65 % 0 lf 1023,0 hPa 0,0 l/m 0 min 0 min 0 W/m 9,0 km/h (2 Bft) 97,83 %
20.04.2018 00:38 17,3 C 15,6 C 11,7 C 64 % 0 lf 1023,0 hPa 0,0 l/m 0 min 0 min 0 W/m 6,8 km/h (2 Bft) 95,74 %
20.04.2018 00:40 17,2 C 15,6 C 11,7 C 64 % 0 lf 1023,0 hPa 0,0 l/m 0 min 0 min 0 W/m 4,5 km/h (1 Bft) 97,87 %
20.04.2018 00:42 17,2 C 15,6 C 11,7 C 65 % 0 lf 1023,0 hPa 0,0 l/m 0 min 0 min 0 W/m 6,8 km/h (2 Bft) 97,87 %
20.04.2018 00:44 17,2 C 15,6 C 11,7 C 65 % 0 lf 1022,9 hPa 0,0 l/m 0 min 0 min 0 W/m 6,8 km/h (2 Bft) 97,87 %
20.04.2018 00:46 17,1 C 15,6 C 11,7 C 65 % 0 lf 1022,9 hPa 0,0 l/m 0 min 0 min 0 W/m 6,8 km/h (2 Bft) 95,74 %
20.04.2018 00:48 17,1 C 15,6 C 11,1 C 65 % 0 lf 1022,9 hPa 0,0 l/m 0 min 0 min 0 W/m 6,8 km/h (2 Bft) 97,83 %
20.04.2018 00:50 17,1 C 15,0 C 11,1 C 65 % 0 lf 1023,0 hPa 0,0 l/m 0 min 0 min 0 W/m 4,5 km/h (1 Bft) 97,87 %
20.04.2018 00:52 17,0 C 15,6 C 11,1 C 65 % 0 lf 1023,0 hPa 0,0 l/m 0 min 0 min 0 W/m 4,5 km/h (1 Bft) 97,87 %
20.04.2018 00:54 16,9 C 15,6 C 11,7 C 65 % 0 lf 1022,9 hPa 0,0 l/m 0 min 0 min 0 W/m 6,8 km/h (2 Bft) 97,87 %
20.04.2018 00:56 16,9 C 15,6 C 11,1 C 66 % 0 lf 1023,0 hPa 0,0 l/m 0 min 0 min 0 W/m 6,8 km/h (2 Bft) 97,87 %
20.04.2018 00:58 16,9 C 15,6 C 11,1 C 65 % 0 lf 1022,9 hPa 0,0 l/m 0 min 0 min 0 W/m 4,5 km/h (1 Bft) 100,00 %
20.04.2018 01:00 16,8 C 15,0 C 11,1 C 66 % 0 lf 1022,9 hPa 0,0 l/m 0 min 0 min 0 W/m 6,8 km/h (2 Bft) 100,00 %
20.04.2018 01:02 16,8 C 15,0 C 11,1 C 66 % 0 lf 1022,9 hPa 0,0 l/m 0 min 0 min 0 W/m 4,5 km/h (1 Bft) 97,87 %
20.04.2018 01:04 16,8 C 15,0 C 11,1 C 66 % 0 lf 1022,9 hPa 0,0 l/m 0 min 0 min 0 W/m 4,5 km/h (1 Bft) 95,74 %
20.04.2018 01:06 16,7 C 15,0 C 11,1 C 66 % 0 lf 1022,9 hPa 0,0 l/m 0 min 0 min 0 W/m 4,5 km/h (1 Bft) 100,00 %
20.04.2018 01:08 16,7 C 15,6 C 11,1 C 66 % 0 lf 1022,9 hPa 0,0 l/m 0 min 0 min 0 W/m 4,5 km/h (1 Bft) 97,87 %
20.04.2018 01:10 16,7 C 15,6 C 11,1 C 66 % 0 lf 1023,0 hPa 0,0 l/m 0 min 0 min 0 W/m 4,5 km/h (1 Bft) 100,00 %
20.04.2018 01:12 16,6 C 15,6 C 11,1 C 67 % 0 lf 1022,9 hPa 0,0 l/m 0 min 0 min 0 W/m 4,5 km/h (1 Bft) 100,00 %
20.04.2018 01:14 16,6 C 15,6 C 11,1 C 67 % 0 lf 1022,9 hPa 0,0 l/m 0 min 0 min 0 W/m 6,8 km/h (2 Bft) 100,00 %
20.04.2018 01:16 16,5 C 15,0 C 11,1 C 67 % 0 lf 1022,9 hPa 0,0 l/m 0 min 0 min 0 W/m 6,8 km/h (2 Bft) 100,00 %
20.04.2018 01:18 16,5 C 15,0 C 11,1 C 67 % 0 lf 1022,9 hPa 0,0 l/m 0 min 0 min 0 W/m 4,5 km/h (1 Bft) 97,87 %
20.04.2018 01:20 16,4 C 15,0 C 11,1 C 67 % 0 lf 1022,9 hPa 0,0 l/m 0 min 0 min 0 W/m 4,5 km/h (1 Bft) 100,00 %
20.04.2018 01:22 16,4 C 15,0 C 11,1 C 67 % 0 lf 1022,8 hPa 0,0 l/m 0 min 0 min 0 W/m 4,5 km/h (1 Bft) 97,83 %
20.04.2018 01:24 16,4 C 15,0 C 11,1 C 67 % 0 lf 1022,8 hPa 0,0 l/m 0 min 0 min 0 W/m 4,5 km/h (1 Bft) 100,00 %
20.04.2018 01:26 16,3 C 15,0 C 10,6 C 67 % 0 lf 1022,8 hPa 0,0 l/m 0 min 0 min 0 W/m 4,5 km/h (1 Bft) 95,74 %
20.04.2018 01:28 16,3 C 15,0 C 10,6 C 67 % 0 lf 1022,8 hPa 0,0 l/m 0 min 0 min 0 W/m 2,3 km/h (1 Bft) 100,00 %
20.04.2018 01:30 16,3 C 14,4 C 10,6 C 67 % 0 lf 1022,9 hPa 0,0 l/m 0 min 0 min 0 W/m 4,5 km/h (1 Bft) 100,00 %
20.04.2018 01:32 16,2 C 14,4 C 10,6 C 67 % 0 lf 1022,8 hPa 0,0 l/m 0 min 0 min 0 W/m 6,8 km/h (2 Bft) 100,00 %
20.04.2018 01:34 16,2 C 14,4 C 10,6 C 67 % 0 lf 1022,8 hPa 0,0 l/m 0 min 0 min 0 W/m 6,8 km/h (2 Bft) 97,83 %
20.04.2018 01:36 16,1 C 14,4 C 10,6 C 67 % 0 lf 1022,9 hPa 0,0 l/m 0 min 0 min 0 W/m 6,8 km/h (2 Bft) 100,00 %
20.04.2018 01:38 16,1 C 15,0 C 10,6 C 68 % 0 lf 1022,8 hPa 0,0 l/m 0 min 0 min 0 W/m 6,8 km/h (2 Bft) 93,62 %
20.04.2018 01:40 16,1 C 15,0 C 10,6 C 68 % 0 lf 1022,8 hPa 0,0 l/m 0 min 0 min 0 W/m 6,8 km/h (2 Bft) 100,00 %
20.04.2018 01:42 16,0 C 14,4 C 10,6 C 68 % 0 lf 1022,9 hPa 0,0 l/m 0 min 0 min 0 W/m 6,8 km/h (2 Bft) 97,87 %
20.04.2018 01:44 16,0 C 14,4 C 10,6 C 68 % 0 lf 1022,8 hPa 0,0 l/m 0 min 0 min 0 W/m 4,5 km/h (1 Bft) 97,87 %
20.04.2018 01:46 15,9 C 14,4 C 10,6 C 68 % 0 lf 1022,8 hPa 0,0 l/m 0 min 0 min 0 W/m 4,5 km/h (1 Bft) 97,83 %
20.04.2018 01:48 15,9 C 14,4 C 10,6 C 68 % 0 lf 1022,8 hPa 0,0 l/m 0 min 0 min 0 W/m 4,5 km/h (1 Bft) 95,74 %
20.04.2018 01:50 15,9 C 14,4 C 10,6 C 69 % 0 lf 1022,9 hPa 0,0 l/m 0 min 0 min 0 W/m 2,3 km/h (1 Bft) 95,74 %
20.04.2018 01:52 15,8 C 14,4 C 10,6 C 69 % 0 lf 1022,9 hPa 0,0 l/m 0 min 0 min 0 W/m 4,5 km/h (1 Bft) 93,62 %
20.04.2018 01:54 15,8 C 14,4 C 10,6 C 69 % 0 lf 1022,9 hPa 0,0 l/m 0 min 0 min 0 W/m 4,5 km/h (1 Bft) 93,62 %
20.04.2018 01:56 15,8 C 14,4 C 10,6 C 69 % 0 lf 1022,8 hPa 0,0 l/m 0 min 0 min 0 W/m 2,3 km/h (1 Bft) 95,74 %
20.04.2018 01:58 15,7 C 14,4 C 10,6 C 70 % 0 lf 1022,8 hPa 0,0 l/m 0 min 0 min 0 W/m 2,3 km/h (1 Bft) 95,65 %
20.04.2018 02:00 15,7 C 14,4 C 10,6 C 70 % 0 lf 1022,9 hPa 0,0 l/m 0 min 0 min 0 W/m 4,5 km/h (1 Bft) 93,62 %
20.04.2018 02:02 15,7 C 14,4 C 10,6 C 70 % 0 lf 1022,9 hPa 0,0 l/m 0 min 0 min 0 W/m 6,8 km/h (2 Bft) 93,62 %
20.04.2018 02:04 15,6 C 14,4 C 10,6 C 70 % 0 lf 1022,8 hPa 0,0 l/m 0 min 0 min 0 W/m 4,5 km/h (1 Bft) 93,62 %
20.04.2018 02:06 15,6 C 14,4 C 10,6 C 70 % 0 lf 1022,8 hPa 0,0 l/m 0 min 0 min 0 W/m 6,8 km/h (2 Bft) 89,36 %
20.04.2018 02:08 15,6 C 14,4 C 10,6 C 70 % 0 lf 1022,8 hPa 0,0 l/m 0 min 0 min 0 W/m 6,8 km/h (2 Bft) 91,49 %
20.04.2018 02:10 15,5 C 14,4 C 10,6 C 70 % 0 lf 1022,7 hPa 0,0 l/m 0 min 0 min 0 W/m 6,8 km/h (2 Bft) 93,48 %
20.04.2018 02:12 15,4 C 14,4 C 10,6 C 70 % 0 lf 1022,7 hPa 0,0 l/m 0 min 0 min 0 W/m 6,8 km/h (2 Bft) 93,62 %
20.04.2018 02:14 15,4 C 14,4 C 11,1 C 70 % 0 lf 1022,7 hPa 0,0 l/m 0 min 0 min 0 W/m 6,8 km/h (2 Bft) 93,62 %
20.04.2018 02:16 15,4 C 14,4 C 10,6 C 70 % 0 lf 1022,7 hPa 0,0 l/m 0 min 0 min 0 W/m 9,0 km/h (2 Bft) 93,62 %
20.04.2018 02:18 15,3 C 14,4 C 10,6 C 70 % 0 lf 1022,7 hPa 0,0 l/m 0 min 0 min 0 W/m 6,8 km/h (2 Bft) 93,62 %
20.04.2018 02:20 15,3 C 14,4 C 10,6 C 71 % 0 lf 1022,8 hPa 0,0 l/m 0 min 0 min 0 W/m 6,8 km/h (2 Bft) 93,62 %
20.04.2018 02:22 15,3 C 14,4 C 10,6 C 71 % 0 lf 1022,7 hPa 0,0 l/m 0 min 0 min 0 W/m 6,8 km/h (2 Bft) 93,48 %
20.04.2018 02:24 15,3 C 14,4 C 10,6 C 71 % 0 lf 1022,7 hPa 0,0 l/m 0 min 0 min 0 W/m 9,0 km/h (2 Bft) 93,62 %
20.04.2018 02:26 15,3 C 14,4 C 10,6 C 71 % 0 lf 1022,6 hPa 0,0 l/m 0 min 0 min 0 W/m 9,0 km/h (2 Bft) 91,49 %
20.04.2018 02:28 15,2 C 14,4 C 10,6 C 71 % 0 lf 1022,6 hPa 0,0 l/m 0 min 0 min 0 W/m 9,0 km/h (2 Bft) 95,74 %
20.04.2018 02:30 15,2 C 14,4 C 10,6 C 71 % 0 lf 1022,6 hPa 0,0 l/m 0 min 0 min 0 W/m 6,8 km/h (2 Bft) 93,62 %
20.04.2018 02:32 15,2 C 14,4 C 10,6 C 71 % 0 lf 1022,6 hPa 0,0 l/m 0 min 0 min 0 W/m 6,8 km/h (2 Bft) 93,62 %
20.04.2018 02:34 15,2 C 14,4 C 10,6 C 71 % 0 lf 1022,6 hPa 0,0 l/m 0 min 0 min 0 W/m 6,8 km/h (2 Bft) 91,30 %
20.04.2018 02:36 15,2 C 13,9 C 10,6 C 70 % 0 lf 1022,5 hPa 0,0 l/m 0 min 0 min 0 W/m 6,8 km/h (2 Bft) 95,74 %
20.04.2018 02:38 15,1 C 13,9 C 10,6 C 70 % 0 lf 1022,6 hPa 0,0 l/m 0 min 0 min 0 W/m 6,8 km/h (2 Bft) 95,74 %
20.04.2018 02:40 15,1 C 13,9 C 10,6 C 70 % 0 lf 1022,6 hPa 0,0 l/m 0 min 0 min 0 W/m 9,0 km/h (2 Bft) 95,74 %
20.04.2018 02:42 15,1 C 14,4 C 11,1 C 70 % 0 lf 1022,6 hPa 0,0 l/m 0 min 0 min 0 W/m 9,0 km/h (2 Bft) 95,74 %
20.04.2018 02:44 15,1 C 14,4 C 11,7 C 71 % 0 lf 1022,6 hPa 0,0 l/m 0 min 0 min 0 W/m 9,0 km/h (2 Bft) 95,65 %
20.04.2018 02:46 15,1 C 13,9 C 11,7 C 72 % 0 lf 1022,6 hPa 0,0 l/m 0 min 0 min 0 W/m 6,8 km/h (2 Bft) 91,49 %
20.04.2018 02:48 15,0 C 13,9 C 11,7 C 72 % 0 lf 1022,6 hPa 0,0 l/m 0 min 0 min 0 W/m 6,8 km/h (2 Bft) 100,00 %
20.04.2018 02:50 15,0 C 13,9 C 11,1 C 72 % 0 lf 1022,6 hPa 0,0 l/m 0 min 0 min 0 W/m 6,8 km/h (2 Bft) 100,00 %
20.04.2018 02:52 15,0 C 13,3 C 11,1 C 72 % 0 lf 1022,6 hPa 0,0 l/m 0 min 0 min 0 W/m 6,8 km/h (2 Bft) 97,87 %
20.04.2018 02:54 15,0 C 13,3 C 11,1 C 72 % 0 lf 1022,7 hPa 0,0 l/m 0 min 0 min 0 W/m 9,0 km/h (2 Bft) 97,87 %
20.04.2018 02:56 14,9 C 13,3 C 10,6 C 72 % 0 lf 1022,8 hPa 0,0 l/m 0 min 0 min 0 W/m 4,5 km/h (1 Bft) 97,87 %
20.04.2018 02:58 14,9 C 13,3 C 10,6 C 72 % 0 lf 1022,7 hPa 0,0 l/m 0 min 0 min 0 W/m 6,8 km/h (2 Bft) 97,83 %
20.04.2018 03:00 14,9 C 13,3 C 11,1 C 72 % 0 lf 1022,7 hPa 0,0 l/m 0 min 0 min 0 W/m 6,8 km/h (2 Bft) 100,00 %
20.04.2018 03:02 14,8 C 12,8 C 10,6 C 72 % 0 lf 1022,6 hPa 0,0 l/m 0 min 0 min 0 W/m 6,8 km/h (2 Bft) 89,36 %
20.04.2018 03:04 14,8 C 12,8 C 10,6 C 72 % 0 lf 1022,7 hPa 0,0 l/m 0 min 0 min 0 W/m 4,5 km/h (1 Bft) 97,87 %
20.04.2018 03:06 14,8 C 13,3 C 10,6 C 72 % 0 lf 1022,6 hPa 0,0 l/m 0 min 0 min 0 W/m 4,5 km/h (1 Bft) 100,00 %
20.04.2018 03:08 14,8 C 13,3 C 10,6 C 72 % 0 lf 1022,6 hPa 0,0 l/m 0 min 0 min 0 W/m 6,8 km/h (2 Bft) 100,00 %
20.04.2018 03:10 14,8 C 13,3 C 10,6 C 72 % 0 lf 1022,6 hPa 0,0 l/m 0 min 0 min 0 W/m 4,5 km/h (1 Bft) 100,00 %
20.04.2018 03:12 14,7 C 12,8 C 10,6 C 72 % 0 lf 1022,6 hPa 0,0 l/m 0 min 0 min 0 W/m 4,5 km/h (1 Bft) 97,87 %
20.04.2018 03:14 14,7 C 12,8 C 10,0 C 72 % 0 lf 1022,6 hPa 0,0 l/m 0 min 0 min 0 W/m 4,5 km/h (1 Bft) 95,74 %
20.04.2018 03:16 14,7 C 12,8 C 10,0 C 72 % 0 lf 1022,5 hPa 0,0 l/m 0 min 0 min 0 W/m 4,5 km/h (1 Bft) 97,87 %
20.04.2018 03:18 14,6 C 12,8 C 10,0 C 73 % 0 lf 1022,5 hPa 0,0 l/m 0 min 0 min 0 W/m 4,5 km/h (1 Bft) 95,74 %
20.04.2018 03:20 14,6 C 12,8 C 10,0 C 73 % 0 lf 1022,5 hPa 0,0 l/m 0 min 0 min 0 W/m 4,5 km/h (1 Bft) 95,65 %
20.04.2018 03:22 14,5 C 12,2 C 10,0 C 73 % 0 lf 1022,6 hPa 0,0 l/m 0 min 0 min 0 W/m 6,8 km/h (2 Bft) 97,87 %
20.04.2018 03:24 14,5 C 12,2 C 10,0 C 73 % 0 lf 1022,5 hPa 0,0 l/m 0 min 0 min 0 W/m 4,5 km/h (1 Bft) 97,87 %
20.04.2018 03:26 14,4 C 12,2 C 10,0 C 73 % 0 lf 1022,5 hPa 0,0 l/m 0 min 0 min 0 W/m 4,5 km/h (1 Bft) 97,87 %
20.04.2018 03:28 14,4 C 12,8 C 10,0 C 73 % 0 lf 1022,5 hPa 0,0 l/m 0 min 0 min 0 W/m 4,5 km/h (1 Bft) 95,74 %
20.04.2018 03:30 14,3 C 12,8 C 10,0 C 73 % 0 lf 1022,5 hPa 0,0 l/m 0 min 0 min 0 W/m 4,5 km/h (1 Bft) 95,74 %
20.04.2018 03:32 14,3 C 12,8 C 9,4 C 73 % 0 lf 1022,5 hPa 0,0 l/m 0 min 0 min 0 W/m 4,5 km/h (1 Bft) 97,83 %
20.04.2018 03:34 14,2 C 12,8 C 9,4 C 73 % 0 lf 1022,5 hPa 0,0 l/m 0 min 0 min 0 W/m 4,5 km/h (1 Bft) 97,87 %
20.04.2018 03:36 14,2 C 12,8 C 9,4 C 73 % 0 lf 1022,5 hPa 0,0 l/m 0 min 0 min 0 W/m 4,5 km/h (1 Bft) 91,49 %
20.04.2018 03:38 14,2 C 12,8 C 9,4 C 73 % 0 lf 1022,6 hPa 0,0 l/m 0 min 0 min 0 W/m 4,5 km/h (1 Bft) 97,87 %
20.04.2018 03:40 14,2 C 12,8 C 9,4 C 73 % 0 lf 1022,5 hPa 0,0 l/m 0 min 0 min 0 W/m 4,5 km/h (1 Bft) 97,87 %
20.04.2018 03:42 14,2 C 12,8 C 9,4 C 73 % 0 lf 1022,5 hPa 0,0 l/m 0 min 0 min 0 W/m 4,5 km/h (1 Bft) 93,62 %
20.04.2018 03:44 14,2 C 12,8 C 9,4 C 74 % 0 lf 1022,5 hPa 0,0 l/m 0 min 0 min 0 W/m 4,5 km/h (1 Bft) 97,83 %
20.04.2018 03:46 14,2 C 12,8 C 9,4 C 74 % 0 lf 1022,6 hPa 0,0 l/m 0 min 0 min 0 W/m 4,5 km/h (1 Bft) 97,87 %
20.04.2018 03:48 14,1 C 12,8 C 9,4 C 74 % 0 lf 1022,5 hPa 0,0 l/m 0 min 0 min 0 W/m 4,5 km/h (1 Bft) 95,74 %
20.04.2018 03:50 14,1 C 12,8 C 9,4 C 74 % 0 lf 1022,5 hPa 0,0 l/m 0 min 0 min 0 W/m 4,5 km/h (1 Bft) 97,87 %
20.04.2018 03:52 14,0 C 12,8 C 9,4 C 74 % 0 lf 1022,5 hPa 0,0 l/m 0 min 0 min 0 W/m 4,5 km/h (1 Bft) 95,74 %
20.04.2018 03:54 14,0 C 12,8 C 9,4 C 75 % 0 lf 1022,5 hPa 0,0 l/m 0 min 0 min 0 W/m 4,5 km/h (1 Bft) 95,74 %
20.04.2018 03:56 13,9 C 12,8 C 9,4 C 75 % 0 lf 1022,4 hPa 0,0 l/m 0 min 0 min 0 W/m 6,8 km/h (2 Bft) 97,83 %
20.04.2018 03:58 13,9 C 12,8 C 9,4 C 75 % 0 lf 1022,5 hPa 0,0 l/m 0 min 0 min 0 W/m 4,5 km/h (1 Bft) 95,74 %
20.04.2018 04:00 13,8 C 12,8 C 9,4 C 75 % 0 lf 1022,5 hPa 0,0 l/m 0 min 0 min 0 W/m 2,3 km/h (1 Bft) 97,87 %
20.04.2018 04:02 13,8 C 12,8 C 9,4 C 75 % 0 lf 1022,4 hPa 0,0 l/m 0 min 0 min 0 W/m 4,5 km/h (1 Bft) 100,00 %
20.04.2018 04:04 13,8 C 12,8 C 9,4 C 75 % 0 lf 1022,4 hPa 0,0 l/m 0 min 0 min 0 W/m 4,5 km/h (1 Bft) 93,62 %
20.04.2018 04:06 13,8 C 12,8 C 9,4 C 76 % 0 lf 1022,5 hPa 0,0 l/m 0 min 0 min 0 W/m 4,5 km/h (1 Bft) 97,83 %
20.04.2018 04:08 13,7 C 12,8 C 9,4 C 76 % 0 lf 1022,5 hPa 0,0 l/m 0 min 0 min 0 W/m 6,8 km/h (2 Bft) 95,74 %
20.04.2018 04:10 13,7 C 12,8 C 9,4 C 76 % 0 lf 1022,5 hPa 0,0 l/m 0 min 0 min 0 W/m 4,5 km/h (1 Bft) 100,00 %
20.04.2018 04:12 13,7 C 12,8 C 9,4 C 76 % 0 lf 1022,4 hPa 0,0 l/m 0 min 0 min 0 W/m 4,5 km/h (1 Bft) 95,74 %
20.04.2018 04:14 13,6 C 12,2 C 9,4 C 76 % 0 lf 1022,5 hPa 0,0 l/m 0 min 0 min 0 W/m 4,5 km/h (1 Bft) 93,62 %
20.04.2018 04:16 13,6 C 12,2 C 9,4 C 76 % 0 lf 1022,5 hPa 0,0 l/m 0 min 0 min 0 W/m 4,5 km/h (1 Bft) 95,74 %
20.04.2018 04:18 13,6 C 12,2 C 9,4 C 76 % 0 lf 1022,5 hPa 0,0 l/m 0 min 0 min 0 W/m 4,5 km/h (1 Bft) 97,83 %
20.04.2018 04:20 13,6 C 12,2 C 9,4 C 76 % 0 lf 1022,4 hPa 0,0 l/m 0 min 0 min 0 W/m 4,5 km/h (1 Bft) 95,74 %
20.04.2018 04:22 13,5 C 12,2 C 9,4 C 76 % 0 lf 1022,4 hPa 0,0 l/m 0 min 0 min 0 W/m 4,5 km/h (1 Bft) 95,74 %
20.04.2018 04:24 13,5 C 12,2 C 9,4 C 76 % 0 lf 1022,4 hPa 0,0 l/m 0 min 0 min 0 W/m 6,8 km/h (2 Bft) 93,62 %
20.04.2018 04:26 13,4 C 12,2 C 9,4 C 76 % 0 lf 1022,4 hPa 0,0 l/m 0 min 0 min 0 W/m 6,8 km/h (2 Bft) 97,87 %
20.04.2018 04:28 13,4 C 12,2 C 9,4 C 76 % 0 lf 1022,4 hPa 0,0 l/m 0 min 0 min 0 W/m 4,5 km/h (1 Bft) 89,36 %
20.04.2018 04:30 13,4 C 12,2 C 9,4 C 76 % 0 lf 1022,4 hPa 0,0 l/m 0 min 0 min 0 W/m 2,3 km/h (1 Bft) 95,65 %
20.04.2018 04:32 13,3 C 12,2 C 9,4 C 76 % 0 lf 1022,4 hPa 0,0 l/m 0 min 0 min 0 W/m 2,3 km/h (1 Bft) 93,62 %
20.04.2018 04:34 13,3 C 12,2 C 9,4 C 77 % 0 lf 1022,4 hPa 0,0 l/m 0 min 0 min 0 W/m 0,0 km/h (0 Bft) 95,74 %
20.04.2018 04:36 13,3 C 12,2 C 9,4 C 77 % 0 lf 1022,3 hPa 0,0 l/m 0 min 0 min 0 W/m 0,0 km/h (0 Bft) 95,74 %
20.04.2018 04:38 13,3 C 12,2 C 9,4 C 78 % 0 lf 1022,4 hPa 0,0 l/m 0 min 0 min 0 W/m 0,0 km/h (0 Bft) 93,62 %
20.04.2018 04:40 13,3 C 12,2 C 9,4 C 78 % 0 lf 1022,3 hPa 0,0 l/m 0 min 0 min 0 W/m 0,0 km/h (0 Bft) 95,74 %
20.04.2018 04:42 13,2 C 12,2 C 9,4 C 78 % 0 lf 1022,3 hPa 0,0 l/m 0 min 0 min 0 W/m 0,0 km/h (0 Bft) 95,65 %
20.04.2018 04:44 13,2 C 12,2 C 9,4 C 78 % 0 lf 1022,3 hPa 0,0 l/m 0 min 0 min 0 W/m 0,0 km/h (0 Bft) 95,74 %
20.04.2018 04:46 13,2 C 11,7 C 8,9 C 78 % 0 lf 1022,4 hPa 0,0 l/m 0 min 0 min 0 W/m 0,0 km/h (0 Bft) 91,49 %
20.04.2018 04:48 13,2 C 11,7 C 8,9 C 78 % 0 lf 1022,3 hPa 0,0 l/m 0 min 0 min 0 W/m 0,0 km/h (0 Bft) 95,74 %
20.04.2018 04:50 13,1 C 11,7 C 8,9 C 78 % 0 lf 1022,2 hPa 0,0 l/m 0 min 0 min 0 W/m 0,0 km/h (0 Bft) 97,87 %
20.04.2018 04:52 13,1 C 11,7 C 8,9 C 78 % 0 lf 1022,3 hPa 0,0 l/m 0 min 0 min 0 W/m 0,0 km/h (0 Bft) 93,62 %
20.04.2018 04:54 13,1 C 11,7 C 8,9 C 78 % 0 lf 1022,3 hPa 0,0 l/m 0 min 0 min 0 W/m 0,0 km/h (0 Bft) 97,83 %
20.04.2018 04:56 13,1 C 11,7 C 8,9 C 78 % 0 lf 1022,3 hPa 0,0 l/m 0 min 0 min 0 W/m 6,8 km/h (2 Bft) 97,87 %
20.04.2018 04:58 13,0 C 11,7 C 8,9 C 78 % 0 lf 1022,3 hPa 0,0 l/m 0 min 0 min 0 W/m 6,8 km/h (2 Bft) 97,87 %
20.04.2018 05:00 13,0 C 11,7 C 8,9 C 78 % 0 lf 1022,2 hPa 0,0 l/m 0 min 0 min 0 W/m 6,8 km/h (2 Bft) 97,87 %
20.04.2018 05:02 12,9 C 11,7 C 8,9 C 78 % 0 lf 1022,3 hPa 0,0 l/m 0 min 0 min 0 W/m 6,8 km/h (2 Bft) 95,74 %
20.04.2018 05:04 12,9 C 11,7 C 8,9 C 78 % 0 lf 1022,3 hPa 0,0 l/m 0 min 0 min 0 W/m 4,5 km/h (1 Bft) 95,74 %
20.04.2018 05:08 12,8 C 11,7 C 8,9 C 78 % 0 lf 1022,2 hPa 0,0 l/m 0 min 0 min 0 W/m 6,8 km/h (2 Bft) 95,70 %
20.04.2018 05:10 12,8 C 11,7 C 8,9 C 78 % 0 lf 1022,2 hPa 0,0 l/m 0 min 0 min 0 W/m 6,8 km/h (2 Bft) 95,74 %
20.04.2018 05:12 12,8 C 11,7 C 8,9 C 78 % 0 lf 1022,2 hPa 0,0 l/m 0 min 0 min 0 W/m 6,8 km/h (2 Bft) 97,87 %
20.04.2018 05:14 12,8 C 12,2 C 8,9 C 79 % 0 lf 1022,2 hPa 0,0 l/m 0 min 0 min 0 W/m 9,0 km/h (2 Bft) 97,87 %
20.04.2018 05:16 12,7 C 11,7 C 8,9 C 79 % 0 lf 1022,2 hPa 0,0 l/m 0 min 0 min 0 W/m 4,5 km/h (1 Bft) 95,74 %
20.04.2018 05:18 12,7 C 11,7 C 8,9 C 79 % 0 lf 1022,2 hPa 0,0 l/m 0 min 0 min 0 W/m 6,8 km/h (2 Bft) 95,65 %
20.04.2018 05:20 12,7 C 11,7 C 8,9 C 79 % 0 lf 1022,2 hPa 0,0 l/m 0 min 0 min 0 W/m 4,5 km/h (1 Bft) 95,74 %
20.04.2018 05:22 12,7 C 11,7 C 8,9 C 79 % 0 lf 1022,2 hPa 0,0 l/m 0 min 0 min 0 W/m 6,8 km/h (2 Bft) 97,87 %
20.04.2018 05:24 12,6 C 12,2 C 8,9 C 80 % 0 lf 1022,2 hPa 0,0 l/m 0 min 0 min 0 W/m 6,8 km/h (2 Bft) 95,74 %
20.04.2018 05:26 12,6 C 12,2 C 8,9 C 80 % 0 lf 1022,2 hPa 0,0 l/m 0 min 0 min 0 W/m 6,8 km/h (2 Bft) 97,87 %
20.04.2018 05:28 12,6 C 12,2 C 8,9 C 80 % 0 lf 1022,2 hPa 0,0 l/m 0 min 0 min 0 W/m 6,8 km/h (2 Bft) 97,83 %
20.04.2018 05:30 12,6 C 12,2 C 8,9 C 80 % 0 lf 1022,1 hPa 0,0 l/m 0 min 0 min 0 W/m 6,8 km/h (2 Bft) 97,87 %
20.04.2018 05:32 12,6 C 12,2 C 8,9 C 80 % 0 lf 1022,1 hPa 0,0 l/m 0 min 0 min 0 W/m 6,8 km/h (2 Bft) 97,87 %
20.04.2018 05:34 12,6 C 12,2 C 8,9 C 81 % 0 lf 1022,1 hPa 0,0 l/m 0 min 0 min 0 W/m 4,5 km/h (1 Bft) 95,74 %
20.04.2018 05:35 12,6 C 12,2 C 8,9 C 81 % 0 lf 1022,1 hPa 0,0 l/m 0 min 0 min 0 W/m 6,8 km/h (2 Bft) 99,12 %
20.04.2018 05:43 12,6 C 12,2 C 8,9 C 81 % 0 lf 1022,1 hPa 0,0 l/m 0 min 0 min 0 W/m 4,5 km/h (1 Bft) 4,76 %
20.04.2018 05:44 12,5 C 12,2 C 8,9 C 81 % 0 lf 1022,1 hPa 0,0 l/m 0 min 0 min 0 W/m 4,5 km/h (1 Bft) 100,00 %
20.04.2018 05:46 12,5 C 12,2 C 8,9 C 81 % 0 lf 1022,0 hPa 0,0 l/m 0 min 0 min 0 W/m 4,5 km/h (1 Bft) 100,00 %
20.04.2018 05:48 12,5 C 12,2 C 8,9 C 81 % 0 lf 1021,9 hPa 0,0 l/m 0 min 0 min 0 W/m 4,5 km/h (1 Bft) 97,83 %
20.04.2018 05:50 12,5 C 11,7 C 8,9 C 81 % 0 lf 1022,0 hPa 0,0 l/m 0 min 0 min 0 W/m 6,8 km/h (2 Bft) 93,62 %
20.04.2018 05:52 12,5 C 11,7 C 8,9 C 81 % 0 lf 1022,1 hPa 0,0 l/m 0 min 0 min 0 W/m 4,5 km/h (1 Bft) 95,74 %
20.04.2018 05:54 12,5 C 11,7 C 8,9 C 81 % 0 lf 1022,0 hPa 0,0 l/m 0 min 0 min 0 W/m 2,3 km/h (1 Bft) 100,00 %
20.04.2018 05:56 12,5 C 11,7 C 8,9 C 81 % 0 lf 1022,0 hPa 0,0 l/m 0 min 0 min 0 W/m 2,3 km/h (1 Bft) 97,87 %
20.04.2018 05:58 12,5 C 11,7 C 8,9 C 81 % 0 lf 1022,0 hPa 0,0 l/m 0 min 0 min 0 W/m 4,5 km/h (1 Bft) 95,65 %
20.04.2018 06:00 12,4 C 11,7 C 8,9 C 81 % 0 lf 1022,0 hPa 0,0 l/m 0 min 0 min 0 W/m 6,8 km/h (2 Bft) 97,87 %
20.04.2018 06:02 12,4 C 11,7 C 8,9 C 81 % 0 lf 1022,0 hPa 0,0 l/m 0 min 0 min 0 W/m 6,8 km/h (2 Bft) 97,87 %
20.04.2018 06:04 12,4 C 11,7 C 8,9 C 81 % 0 lf 1022,0 hPa 0,0 l/m 0 min 0 min 0 W/m 4,5 km/h (1 Bft) 100,00 %
20.04.2018 06:07 12,4 C 11,7 C 8,9 C 81 % 0 lf 1022,0 hPa 0,0 l/m 0 min 0 min 0 W/m 4,5 km/h (1 Bft) 97,14 %
20.04.2018 06:08 12,4 C 11,1 C 8,9 C 81 % 0 lf 1022,0 hPa 0,0 l/m 0 min 0 min 0 W/m 4,5 km/h (1 Bft) 95,83 %
20.04.2018 06:10 12,4 C 11,1 C 8,9 C 81 % 0 lf 1022,1 hPa 0,0 l/m 0 min 0 min 0 W/m 2,3 km/h (1 Bft) 100,00 %
20.04.2018 06:12 12,4 C 11,1 C 8,9 C 81 % 0 lf 1022,0 hPa 0,0 l/m 0 min 0 min 0 W/m 0,0 km/h (0 Bft) 97,87 %
20.04.2018 06:14 12,4 C 11,1 C 8,9 C 81 % 0 lf 1022,1 hPa 0,0 l/m 0 min 0 min 0 W/m 4,5 km/h (1 Bft) 97,87 %
20.04.2018 06:16 12,3 C 11,7 C 8,9 C 81 % 0 lf 1022,1 hPa 0,0 l/m 0 min 0 min 0 W/m 4,5 km/h (1 Bft) 95,74 %
20.04.2018 06:18 12,3 C 11,7 C 8,9 C 81 % 0 lf 1022,1 hPa 0,0 l/m 0 min 0 min 0 W/m 4,5 km/h (1 Bft) 97,87 %
20.04.2018 06:20 12,3 C 11,7 C 8,9 C 82 % 0 lf 1022,1 hPa 0,0 l/m 0 min 0 min 0 W/m 6,8 km/h (2 Bft) 95,74 %
20.04.2018 06:22 12,3 C 11,7 C 8,9 C 82 % 0 lf 1022,1 hPa 0,0 l/m 0 min 0 min 0 W/m 6,8 km/h (2 Bft) 95,65 %
20.04.2018 06:24 12,3 C 11,7 C 8,9 C 82 % 0 lf 1022,1 hPa 0,0 l/m 0 min 0 min 0 W/m 6,8 km/h (2 Bft) 93,62 %
20.04.2018 06:26 12,3 C 11,7 C 8,9 C 82 % 0 lf 1022,1 hPa 0,0 l/m 0 min 0 min 4 W/m 4,5 km/h (1 Bft) 95,74 %
20.04.2018 06:28 12,3 C 11,7 C 8,9 C 82 % 0 lf 1022,1 hPa 0,0 l/m 0 min 0 min 5 W/m 4,5 km/h (1 Bft) 93,62 %
20.04.2018 06:30 12,3 C 11,7 C 8,9 C 82 % 0 lf 1022,1 hPa 0,0 l/m 0 min 0 min 5 W/m 4,5 km/h (1 Bft) 93,62 %
20.04.2018 06:32 12,2 C 11,7 C 8,9 C 83 % 0 lf 1022,1 hPa 0,0 l/m 0 min 0 min 6 W/m 2,3 km/h (1 Bft) 95,74 %
20.04.2018 06:34 12,2 C 11,7 C 8,9 C 83 % 0 lf 1022,1 hPa 0,0 l/m 0 min 0 min 7 W/m 4,5 km/h (1 Bft) 95,65 %
20.04.2018 06:36 12,2 C 11,7 C 8,9 C 82 % 0 lf 1022,1 hPa 0,0 l/m 0 min 0 min 7 W/m 4,5 km/h (1 Bft) 93,62 %
20.04.2018 06:38 12,2 C 11,7 C 8,9 C 83 % 0 lf 1022,1 hPa 0,0 l/m 0 min 0 min 9 W/m 4,5 km/h (1 Bft) 95,74 %
20.04.2018 06:40 12,2 C 11,7 C 8,9 C 83 % 0 lf 1022,1 hPa 0,0 l/m 0 min 0 min 10 W/m 4,5 km/h (1 Bft) 89,36 %
20.04.2018 06:42 12,2 C 11,7 C 8,9 C 83 % 0 lf 1022,1 hPa 0,0 l/m 0 min 0 min 11 W/m 6,8 km/h (2 Bft) 93,62 %
20.04.2018 06:44 12,2 C 11,7 C 8,9 C 83 % 0 lf 1022,1 hPa 0,0 l/m 0 min 0 min 11 W/m 6,8 km/h (2 Bft) 93,62 %
20.04.2018 06:46 12,1 C 11,7 C 8,9 C 83 % 0 lf 1022,1 hPa 0,0 l/m 0 min 0 min 12 W/m 6,8 km/h (2 Bft) 93,48 %
20.04.2018 06:48 12,1 C 11,7 C 8,9 C 83 % 0 lf 1022,1 hPa 0,0 l/m 0 min 0 min 13 W/m 6,8 km/h (2 Bft) 97,87 %
20.04.2018 06:50 12,1 C 11,7 C 8,9 C 83 % 0 lf 1022,1 hPa 0,0 l/m 0 min 0 min 14 W/m 4,5 km/h (1 Bft) 95,74 %
20.04.2018 06:52 12,1 C 11,7 C 8,9 C 83 % 0 lf 1022,1 hPa 0,0 l/m 0 min 0 min 16 W/m 4,5 km/h (1 Bft) 93,62 %
20.04.2018 06:54 12,1 C 11,7 C 8,9 C 83 % 0 lf 1022,1 hPa 0,0 l/m 0 min 0 min 18 W/m 4,5 km/h (1 Bft) 93,62 %
20.04.2018 06:56 12,1 C 11,7 C 8,9 C 84 % 0 lf 1022,1 hPa 0,0 l/m 0 min 0 min 20 W/m 6,8 km/h (2 Bft) 93,62 %
20.04.2018 06:58 12,1 C 11,7 C 8,9 C 84 % 0 lf 1022,2 hPa 0,0 l/m 0 min 0 min 23 W/m 6,8 km/h (2 Bft) 91,30 %
20.04.2018 07:00 12,1 C 11,7 C 8,9 C 84 % 0 lf 1022,1 hPa 0,0 l/m 0 min 0 min 25 W/m 6,8 km/h (2 Bft) 95,74 %
20.04.2018 07:02 12,0 C 11,7 C 8,9 C 84 % 0 lf 1022,1 hPa 0,0 l/m 0 min 0 min 28 W/m 6,8 km/h (2 Bft) 95,83 %
20.04.2018 07:04 12,1 C 12,2 C 8,9 C 84 % 0 lf 1022,1 hPa 0,0 l/m 0 min 0 min 31 W/m 6,8 km/h (2 Bft) 93,62 %
20.04.2018 07:06 12,1 C 12,2 C 9,4 C 84 % 0 lf 1022,1 hPa 0,0 l/m 0 min 0 min 35 W/m 6,8 km/h (2 Bft) 95,74 %
20.04.2018 07:08 12,1 C 12,2 C 9,4 C 84 % 0 lf 1022,1 hPa 0,0 l/m 0 min 0 min 38 W/m 6,8 km/h (2 Bft) 95,74 %
20.04.2018 07:10 12,1 C 12,2 C 9,4 C 84 % 0 lf 1022,2 hPa 0,0 l/m 0 min 0 min 40 W/m 6,8 km/h (2 Bft) 95,65 %
20.04.2018 07:12 12,1 C 12,2 C 9,4 C 84 % 0 lf 1022,1 hPa 0,0 l/m 0 min 0 min 46 W/m 4,5 km/h (1 Bft) 97,87 %
20.04.2018 07:14 12,1 C 12,2 C 9,4 C 84 % 0 lf 1022,2 hPa 0,0 l/m 0 min 0 min 50 W/m 4,5 km/h (1 Bft) 93,62 %
20.04.2018 07:16 12,1 C 12,2 C 9,4 C 84 % 0 lf 1022,1 hPa 0,0 l/m 0 min 0 min 53 W/m 4,5 km/h (1 Bft) 97,87 %
20.04.2018 07:18 12,1 C 12,2 C 9,4 C 84 % 0 lf 1022,1 hPa 0,0 l/m 0 min 0 min 56 W/m 4,5 km/h (1 Bft) 97,87 %
20.04.2018 07:20 12,1 C 12,2 C 9,4 C 84 % 0 lf 1022,2 hPa 0,0 l/m 2 min 0 min 59 W/m 4,5 km/h (1 Bft) 97,83 %
20.04.2018 07:22 12,1 C 12,2 C 9,4 C 84 % 0 lf 1022,1 hPa 0,0 l/m 2 min 0 min 63 W/m 2,3 km/h (1 Bft) 95,74 %
20.04.2018 07:24 12,1 C 12,2 C 9,4 C 84 % 0 lf 1022,2 hPa 0,0 l/m 2 min 0 min 67 W/m 4,5 km/h (1 Bft) 97,87 %
20.04.2018 07:26 12,1 C 12,8 C 9,4 C 84 % 0 lf 1022,1 hPa 0,0 l/m 2 min 0 min 70 W/m 4,5 km/h (1 Bft) 98,00 %
20.04.2018 07:28 12,1 C 12,8 C 9,4 C 84 % 0 lf 1022,2 hPa 0,0 l/m 2 min 0 min 75 W/m 6,8 km/h (2 Bft) 97,87 %
20.04.2018 07:30 12,1 C 12,8 C 10,0 C 84 % 0 lf 1022,2 hPa 0,0 l/m 2 min 0 min 79 W/m 9,0 km/h (2 Bft) 95,74 %
20.04.2018 07:32 12,1 C 12,8 C 10,0 C 84 % 0 lf 1022,2 hPa 0,0 l/m 2 min 0 min 84 W/m 9,0 km/h (2 Bft) 97,83 %
20.04.2018 07:34 12,1 C 12,8 C 10,0 C 84 % 0 lf 1022,2 hPa 0,0 l/m 2 min 0 min 85 W/m 6,8 km/h (2 Bft) 97,87 %
20.04.2018 07:36 12,2 C 12,8 C 10,0 C 84 % 0 lf 1022,2 hPa 0,0 l/m 2 min 0 min 84 W/m 6,8 km/h (2 Bft) 97,87 %
20.04.2018 07:38 12,2 C 12,8 C 10,0 C 84 % 0 lf 1022,2 hPa 0,0 l/m 2 min 0 min 96 W/m 6,8 km/h (2 Bft) 95,74 %
20.04.2018 07:40 12,2 C 12,8 C 10,6 C 84 % 0 lf 1022,2 hPa 0,0 l/m 2 min 0 min 96 W/m 6,8 km/h (2 Bft) 100,00 %
20.04.2018 07:42 12,2 C 12,8 C 10,6 C 84 % 0 lf 1022,2 hPa 0,0 l/m 2 min 0 min 96 W/m 6,8 km/h (2 Bft) 100,00 %
20.04.2018 07:44 12,2 C 13,3 C 10,6 C 84 % 0 lf 1022,2 hPa 0,0 l/m 2 min 0 min 96 W/m 6,8 km/h (2 Bft) 97,83 %
20.04.2018 07:46 12,3 C 13,3 C 10,6 C 84 % 0 lf 1022,2 hPa 0,0 l/m 2 min 0 min 97 W/m 9,0 km/h (2 Bft) 95,74 %
20.04.2018 07:48 12,3 C 13,3 C 10,6 C 84 % 0 lf 1022,2 hPa 0,0 l/m 2 min 0 min 98 W/m 6,8 km/h (2 Bft) 97,87 %
20.04.2018 07:50 12,4 C 13,3 C 10,6 C 84 % 0 lf 1022,2 hPa 0,0 l/m 0 min 0 min 97 W/m 6,8 km/h (2 Bft) 100,00 %
20.04.2018 07:52 12,4 C 13,3 C 11,1 C 84 % 0 lf 1022,2 hPa 0,0 l/m 2 min 0 min 116 W/m 6,8 km/h (2 Bft) 100,00 %
20.04.2018 07:54 12,5 C 13,9 C 11,1 C 84 % 0 lf 1022,3 hPa 0,0 l/m 2 min 0 min 139 W/m 9,0 km/h (2 Bft) 97,83 %
20.04.2018 07:56 12,6 C 13,9 C 11,1 C 84 % 0 lf 1022,2 hPa 0,0 l/m 2 min 0 min 145 W/m 11,3 km/h (2 Bft) 97,87 %
20.04.2018 07:58 12,6 C 13,9 C 11,7 C 84 % 0 lf 1022,2 hPa 0,0 l/m 2 min 0 min 146 W/m 11,3 km/h (2 Bft) 100,00 %
20.04.2018 08:00 12,7 C 13,9 C 11,7 C 83 % 0 lf 1022,2 hPa 0,0 l/m 2 min 0 min 164 W/m 13,5 km/h (3 Bft) 100,00 %
20.04.2018 08:02 12,7 C 13,9 C 11,7 C 83 % 0 lf 1022,2 hPa 0,0 l/m 2 min 0 min 172 W/m 13,5 km/h (3 Bft) 100,00 %
20.04.2018 08:04 12,8 C 13,9 C 11,7 C 83 % 0 lf 1022,2 hPa 0,0 l/m 2 min 0 min 176 W/m 11,3 km/h (2 Bft) 100,00 %
20.04.2018 08:06 12,9 C 14,4 C 11,7 C 83 % 0 lf 1022,2 hPa 0,0 l/m 2 min 0 min 179 W/m 11,3 km/h (2 Bft) 100,00 %
20.04.2018 08:08 12,9 C 14,4 C 12,2 C 82 % 0 lf 1022,2 hPa 0,0 l/m 2 min 0 min 184 W/m 13,5 km/h (3 Bft) 95,74 %
20.04.2018 08:10 13,1 C 14,4 C 12,2 C 82 % 0 lf 1022,2 hPa 0,0 l/m 2 min 0 min 188 W/m 13,5 km/h (3 Bft) 97,87 %
20.04.2018 08:12 13,1 C 14,4 C 12,2 C 82 % 0 lf 1022,2 hPa 0,0 l/m 2 min 0 min 196 W/m 11,3 km/h (2 Bft) 97,87 %
20.04.2018 08:14 13,2 C 14,4 C 12,2 C 82 % 0 lf 1022,2 hPa 0,0 l/m 2 min 0 min 205 W/m 11,3 km/h (2 Bft) 97,87 %
20.04.2018 08:16 13,3 C 14,4 C 12,2 C 81 % 0 lf 1022,2 hPa 0,0 l/m 2 min 0 min 211 W/m 9,0 km/h (2 Bft) 97,87 %
20.04.2018 08:18 13,4 C 14,4 C 12,2 C 81 % 0 lf 1022,1 hPa 0,0 l/m 2 min 0 min 209 W/m 11,3 km/h (2 Bft) 97,83 %
20.04.2018 08:20 13,5 C 15,0 C 12,2 C 81 % 0 lf 1022,1 hPa 0,0 l/m 2 min 0 min 209 W/m 9,0 km/h (2 Bft) 95,74 %
20.04.2018 08:22 13,6 C 15,0 C 12,8 C 81 % 0 lf 1022,2 hPa 0,0 l/m 2 min 0 min 227 W/m 11,3 km/h (2 Bft) 95,74 %
20.04.2018 08:24 13,7 C 15,0 C 12,8 C 80 % 0 lf 1022,2 hPa 0,0 l/m 2 min 0 min 236 W/m 11,3 km/h (2 Bft) 97,87 %
20.04.2018 08:26 13,8 C 15,0 C 12,8 C 80 % 0 lf 1022,2 hPa 0,0 l/m 2 min 0 min 242 W/m 9,0 km/h (2 Bft) 95,74 %
20.04.2018 08:28 13,8 C 15,0 C 12,8 C 80 % 0 lf 1022,2 hPa 0,0 l/m 2 min 0 min 246 W/m 11,3 km/h (2 Bft) 97,87 %
20.04.2018 08:30 13,9 C 15,6 C 12,8 C 80 % 0 lf 1022,1 hPa 0,0 l/m 2 min 0 min 252 W/m 13,5 km/h (3 Bft) 97,83 %
20.04.2018 08:32 14,1 C 15,6 C 13,3 C 80 % 0 lf 1022,1 hPa 0,0 l/m 2 min 0 min 259 W/m 11,3 km/h (2 Bft) 95,74 %
20.04.2018 08:34 14,2 C 15,6 C 13,3 C 79 % 0 lf 1022,1 hPa 0,0 l/m 2 min 0 min 265 W/m 11,3 km/h (2 Bft) 93,62 %
20.04.2018 08:36 14,2 C 15,6 C 13,3 C 79 % 0 lf 1022,2 hPa 0,0 l/m 2 min 0 min 270 W/m 11,3 km/h (2 Bft) 93,62 %
20.04.2018 08:38 14,3 C 15,6 C 13,3 C 79 % 0 lf 1022,1 hPa 0,0 l/m 2 min 0 min 276 W/m 11,3 km/h (2 Bft) 91,49 %
20.04.2018 08:40 14,4 C 15,6 C 13,3 C 79 % 0 lf 1022,2 hPa 0,0 l/m 2 min 0 min 282 W/m 11,3 km/h (2 Bft) 95,74 %
20.04.2018 08:42 14,5 C 16,1 C 13,3 C 78 % 0 lf 1022,2 hPa 0,0 l/m 2 min 0 min 287 W/m 15,8 km/h (3 Bft) 95,65 %
20.04.2018 08:44 14,6 C 16,7 C 13,3 C 78 % 0 lf 1022,2 hPa 0,0 l/m 2 min 0 min 292 W/m 18,0 km/h (3 Bft) 95,74 %
20.04.2018 08:46 14,7 C 17,8 C 13,9 C 78 % 0 lf 1022,1 hPa 0,0 l/m 2 min 0 min 294 W/m 15,8 km/h (3 Bft) 95,74 %
20.04.2018 08:48 14,8 C 19,4 C 13,9 C 78 % 0 lf 1022,1 hPa 0,0 l/m 2 min 0 min 298 W/m 13,5 km/h (3 Bft) 91,49 %
20.04.2018 08:50 14,9 C 20,0 C 13,9 C 77 % 0 lf 1022,1 hPa 0,0 l/m 2 min 0 min 305 W/m 18,0 km/h (3 Bft) 95,74 %
20.04.2018 08:52 15,1 C 20,0 C 13,9 C 77 % 0 lf 1022,1 hPa 0,0 l/m 2 min 0 min 313 W/m 13,5 km/h (3 Bft) 95,74 %
20.04.2018 08:54 15,2 C 19,4 C 13,9 C 76 % 0 lf 1022,2 hPa 0,0 l/m 2 min 0 min 319 W/m 15,8 km/h (3 Bft) 91,30 %
20.04.2018 08:56 15,4 C 20,6 C 14,4 C 75 % 0 lf 1022,1 hPa 0,0 l/m 2 min 0 min 325 W/m 15,8 km/h (3 Bft) 95,74 %
20.04.2018 08:58 15,5 C 20,6 C 14,4 C 75 % 0 lf 1022,1 hPa 0,0 l/m 2 min 0 min 330 W/m 13,5 km/h (3 Bft) 95,74 %
20.04.2018 09:00 15,7 C 20,6 C 14,4 C 75 % 0 lf 1022,1 hPa 0,0 l/m 2 min 0 min 337 W/m 13,5 km/h (3 Bft) 95,74 %
20.04.2018 09:02 15,9 C 21,1 C 14,4 C 75 % 0 lf 1022,2 hPa 0,0 l/m 2 min 0 min 342 W/m 15,8 km/h (3 Bft) 95,74 %
20.04.2018 09:04 16,0 C 21,1 C 14,4 C 74 % 0 lf 1022,2 hPa 0,0 l/m 2 min 0 min 348 W/m 15,8 km/h (3 Bft) 95,74 %
20.04.2018 09:06 16,2 C 21,7 C 15,0 C 74 % 0 lf 1022,2 hPa 0,0 l/m 2 min 0 min 354 W/m 13,5 km/h (3 Bft) 97,83 %
20.04.2018 09:08 16,3 C 21,7 C 15,0 C 73 % 0 lf 1022,1 hPa 0,0 l/m 2 min 0 min 360 W/m 15,8 km/h (3 Bft) 97,87 %
20.04.2018 09:10 16,5 C 21,7 C 15,0 C 73 % 0 lf 1022,2 hPa 0,0 l/m 2 min 0 min 365 W/m 15,8 km/h (3 Bft) 100,00 %
20.04.2018 09:12 16,7 C 22,2 C 15,0 C 72 % 0 lf 1022,1 hPa 0,0 l/m 2 min 0 min 371 W/m 13,5 km/h (3 Bft) 97,87 %
20.04.2018 09:14 16,8 C 22,2 C 15,6 C 72 % 0 lf 1022,1 hPa 0,0 l/m 2 min 0 min 376 W/m 13,5 km/h (3 Bft) 100,00 %
20.04.2018 09:16 16,9 C 21,7 C 15,6 C 71 % 0 lf 1022,1 hPa 0,0 l/m 2 min 0 min 381 W/m 13,5 km/h (3 Bft) 97,83 %
20.04.2018 09:18 17,1 C 21,7 C 15,6 C 71 % 0 lf 1022,1 hPa 0,0 l/m 2 min 0 min 387 W/m 11,3 km/h (2 Bft) 97,87 %
20.04.2018 09:20 17,2 C 22,2 C 16,1 C 71 % 0 lf 1022,1 hPa 0,0 l/m 2 min 0 min 394 W/m 18,0 km/h (3 Bft) 100,00 %
20.04.2018 09:22 17,4 C 22,2 C 16,1 C 70 % 0 lf 1022,1 hPa 0,0 l/m 2 min 0 min 399 W/m 13,5 km/h (3 Bft) 91,49 %
20.04.2018 09:24 17,5 C 22,2 C 16,1 C 70 % 0 lf 1022,1 hPa 0,0 l/m 2 min 0 min 407 W/m 11,3 km/h (2 Bft) 97,87 %
20.04.2018 09:26 17,6 C 22,2 C 16,7 C 70 % 0 lf 1022,1 hPa 0,0 l/m 2 min 0 min 412 W/m 15,8 km/h (3 Bft) 95,74 %
20.04.2018 09:28 17,8 C 22,2 C 16,7 C 69 % 0 lf 1022,1 hPa 0,0 l/m 2 min 0 min 414 W/m 15,8 km/h (3 Bft) 97,83 %
20.04.2018 09:30 17,9 C 22,2 C 16,7 C 69 % 0 lf 1022,1 hPa 0,0 l/m 2 min 0 min 423 W/m 13,5 km/h (3 Bft) 95,74 %
20.04.2018 09:32 18,0 C 22,2 C 16,7 C 69 % 0 lf 1022,1 hPa 0,0 l/m 2 min 0 min 427 W/m 18,0 km/h (3 Bft) 95,74 %
20.04.2018 09:34 18,1 C 23,9 C 16,7 C 69 % 0 lf 1022,1 hPa 0,0 l/m 2 min 0 min 431 W/m 13,5 km/h (3 Bft) 93,62 %
20.04.2018 09:38 18,3 C 24,4 C 17,2 C 69 % 0 lf 1022,0 hPa 0,0 l/m 4 min 0 min 440 W/m 11,3 km/h (2 Bft) 94,68 %
20.04.2018 09:40 18,5 C 25,0 C 17,8 C 69 % 0 lf 1022,1 hPa 0,0 l/m 2 min 0 min 449 W/m 13,5 km/h (3 Bft) 95,65 %
20.04.2018 09:42 18,6 C 25,0 C 18,3 C 69 % 0 lf 1022,1 hPa 0,0 l/m 2 min 0 min 452 W/m 9,0 km/h (2 Bft) 93,62 %
20.04.2018 09:44 18,7 C 26,7 C 18,3 C 69 % 0 lf 1022,1 hPa 0,0 l/m 2 min 0 min 457 W/m 11,3 km/h (2 Bft) 95,83 %
20.04.2018 09:46 18,9 C 27,2 C 18,3 C 68 % 0 lf 1022,1 hPa 0,0 l/m 2 min 0 min 462 W/m 11,3 km/h (2 Bft) 91,49 %
20.04.2018 09:48 19,0 C 25,6 C 18,3 C 67 % 0 lf 1022,2 hPa 0,0 l/m 2 min 0 min 468 W/m 15,8 km/h (3 Bft) 95,74 %
20.04.2018 09:50 19,2 C 25,0 C 18,3 C 67 % 0 lf 1022,2 hPa 0,0 l/m 2 min 0 min 473 W/m 11,3 km/h (2 Bft) 95,74 %
20.04.2018 09:52 19,3 C 24,4 C 18,9 C 66 % 0 lf 1022,1 hPa 0,0 l/m 2 min 0 min 479 W/m 11,3 km/h (2 Bft) 97,83 %
20.04.2018 09:54 19,4 C 25,6 C 18,9 C 66 % 0 lf 1022,1 hPa 0,0 l/m 2 min 0 min 483 W/m 11,3 km/h (2 Bft) 95,74 %
20.04.2018 09:56 19,5 C 27,2 C 19,4 C 67 % 0 lf 1022,2 hPa 0,0 l/m 2 min 0 min 489 W/m 6,8 km/h (2 Bft) 91,49 %
20.04.2018 09:58 19,7 C 27,8 C 20,0 C 67 % 0 lf 1022,1 hPa 0,0 l/m 2 min 0 min 499 W/m 9,0 km/h (2 Bft) 95,74 %
20.04.2018 10:00 19,8 C 27,2 C 20,6 C 66 % 0 lf 1022,1 hPa 0,0 l/m 2 min 0 min 501 W/m 9,0 km/h (2 Bft) 95,74 %
20.04.2018 10:02 19,9 C 27,2 C 22,2 C 66 % 0 lf 1022,1 hPa 0,0 l/m 2 min 0 min 505 W/m 9,0 km/h (2 Bft) 93,48 %
20.04.2018 10:04 20,1 C 28,3 C 23,3 C 66 % 0 lf 1022,2 hPa 0,0 l/m 2 min 0 min 507 W/m 9,0 km/h (2 Bft) 95,74 %
20.04.2018 10:08 20,3 C 28,3 C 25,0 C 66 % 0 lf 1022,1 hPa 0,0 l/m 4 min 0 min 510 W/m 15,8 km/h (3 Bft) 97,87 %
20.04.2018 10:10 20,4 C 26,7 C 25,6 C 65 % 0 lf 1022,1 hPa 0,0 l/m 2 min 0 min 523 W/m 15,8 km/h (3 Bft) 97,83 %
20.04.2018 10:12 20,6 C 28,3 C 25,6 C 65 % 0 lf 1022,1 hPa 0,0 l/m 2 min 0 min 530 W/m 15,8 km/h (3 Bft) 95,74 %
20.04.2018 10:14 20,7 C 28,3 C 26,1 C 65 % 0 lf 1022,0 hPa 0,0 l/m 2 min 0 min 529 W/m 9,0 km/h (2 Bft) 95,74 %
20.04.2018 10:16 20,8 C 28,9 C 25,6 C 65 % 0 lf 1022,1 hPa 0,0 l/m 2 min 0 min 515 W/m 9,0 km/h (2 Bft) 95,74 %
20.04.2018 10:18 21,0 C 29,4 C 25,6 C 65 % 0 lf 1022,0 hPa 0,0 l/m 2 min 0 min 528 W/m 13,5 km/h (3 Bft) 93,62 %
20.04.2018 10:20 21,1 C 28,9 C 26,1 C 64 % 0 lf 1022,0 hPa 0,0 l/m 2 min 0 min 530 W/m 18,0 km/h (3 Bft) 95,74 %
20.04.2018 10:22 21,2 C 28,3 C 26,7 C 64 % 0 lf 1022,0 hPa 0,0 l/m 2 min 0 min 550 W/m 11,3 km/h (2 Bft) 95,65 %
20.04.2018 10:24 21,3 C 28,3 C 27,2 C 64 % 0 lf 1022,0 hPa 0,0 l/m 2 min 0 min 554 W/m 9,0 km/h (2 Bft) 97,87 %
20.04.2018 10:26 21,4 C 28,9 C 27,2 C 63 % 0 lf 1022,0 hPa 0,0 l/m 2 min 0 min 555 W/m 13,5 km/h (3 Bft) 97,87 %
20.04.2018 10:28 21,6 C 29,4 C 27,2 C 63 % 0 lf 1022,0 hPa 0,0 l/m 2 min 0 min 542 W/m 11,3 km/h (2 Bft) 97,87 %
20.04.2018 10:30 21,7 C 30,0 C 27,2 C 64 % 0 lf 1022,1 hPa 0,0 l/m 2 min 0 min 547 W/m 11,3 km/h (2 Bft) 100,00 %
20.04.2018 10:32 21,8 C 30,0 C 27,2 C 64 % 0 lf 1022,1 hPa 0,0 l/m 2 min 0 min 550 W/m 13,5 km/h (3 Bft) 100,00 %
20.04.2018 10:34 21,9 C 30,0 C 27,2 C 64 % 0 lf 1022,1 hPa 0,0 l/m 2 min 0 min 530 W/m 9,0 km/h (2 Bft) 100,00 %
20.04.2018 10:36 22,0 C 28,3 C 26,7 C 62 % 0 lf 1022,1 hPa 0,0 l/m 2 min 0 min 529 W/m 9,0 km/h (2 Bft) 97,87 %
20.04.2018 10:38 22,1 C 27,2 C 26,7 C 62 % 0 lf 1022,1 hPa 0,0 l/m 2 min 0 min 521 W/m 11,3 km/h (2 Bft) 97,87 %
20.04.2018 10:40 22,2 C 28,3 C 27,2 C 62 % 0 lf 1022,1 hPa 0,0 l/m 2 min 0 min 538 W/m 11,3 km/h (2 Bft) 97,87 %
20.04.2018 10:42 22,3 C 27,2 C 27,2 C 61 % 0 lf 1022,1 hPa 0,0 l/m 2 min 0 min 556 W/m 9,0 km/h (2 Bft) 97,87 %
20.04.2018 10:44 22,4 C 26,7 C 27,2 C 61 % 0 lf 1022,2 hPa 0,0 l/m 2 min 0 min 573 W/m 13,5 km/h (3 Bft) 100,00 %
20.04.2018 10:46 22,4 C 29,4 C 27,8 C 62 % 0 lf 1022,2 hPa 0,0 l/m 2 min 0 min 583 W/m 11,3 km/h (2 Bft) 100,00 %
20.04.2018 10:48 22,6 C 29,4 C 27,8 C 62 % 0 lf 1022,1 hPa 0,0 l/m 2 min 0 min 585 W/m 9,0 km/h (2 Bft) 95,74 %
20.04.2018 10:50 22,6 C 28,9 C 27,8 C 61 % 0 lf 1022,2 hPa 0,0 l/m 2 min 0 min 589 W/m 13,5 km/h (3 Bft) 97,87 %
20.04.2018 10:52 22,7 C 28,9 C 27,2 C 60 % 0 lf 1022,1 hPa 0,0 l/m 2 min 0 min 599 W/m 11,3 km/h (2 Bft) 95,74 %
20.04.2018 10:54 22,7 C 28,9 C 27,8 C 61 % 0 lf 1022,2 hPa 0,0 l/m 2 min 0 min 608 W/m 11,3 km/h (2 Bft) 97,87 %
20.04.2018 10:56 22,8 C 27,8 C 27,8 C 61 % 0 lf 1022,2 hPa 0,0 l/m 2 min 0 min 610 W/m 11,3 km/h (2 Bft) 95,74 %
20.04.2018 10:58 22,9 C 28,9 C 27,8 C 62 % 0 lf 1022,2 hPa 0,0 l/m 2 min 0 min 623 W/m 11,3 km/h (2 Bft) 100,00 %
20.04.2018 11:00 22,9 C 28,9 C 27,8 C 61 % 0 lf 1022,2 hPa 0,0 l/m 2 min 0 min 628 W/m 13,5 km/h (3 Bft) 97,87 %
20.04.2018 11:02 23,0 C 30,6 C 27,8 C 62 % 0 lf 1022,2 hPa 0,0 l/m 2 min 0 min 625 W/m 4,5 km/h (1 Bft) 95,74 %
20.04.2018 11:04 23,1 C 30,0 C 26,1 C 61 % 0 lf 1022,2 hPa 0,0 l/m 2 min 0 min 615 W/m 9,0 km/h (2 Bft) 97,87 %
20.04.2018 11:08 23,3 C 29,4 C 25,0 C 61 % 0 lf 1022,2 hPa 0,0 l/m 4 min 0 min 632 W/m 13,5 km/h (3 Bft) 97,87 %
20.04.2018 11:10 23,4 C 31,1 C 25,0 C 61 % 0 lf 1022,2 hPa 0,0 l/m 2 min 0 min 632 W/m 9,0 km/h (2 Bft) 91,30 %
20.04.2018 11:12 23,5 C 30,6 C 25,6 C 60 % 0 lf 1022,1 hPa 0,0 l/m 2 min 0 min 642 W/m 11,3 km/h (2 Bft) 97,87 %
20.04.2018 11:14 23,6 C 30,6 C 26,1 C 60 % 0 lf 1022,2 hPa 0,0 l/m 2 min 0 min 639 W/m 11,3 km/h (2 Bft) 97,87 %
20.04.2018 11:16 23,7 C 30,6 C 27,8 C 60 % 0 lf 1022,2 hPa 0,0 l/m 2 min 0 min 652 W/m 11,3 km/h (2 Bft) 95,74 %
20.04.2018 11:18 23,7 C 30,0 C 28,3 C 59 % 0 lf 1022,2 hPa 0,0 l/m 2 min 0 min 661 W/m 11,3 km/h (2 Bft) 95,74 %
20.04.2018 11:20 23,9 C 32,8 C 28,9 C 62 % 0 lf 1022,2 hPa 0,0 l/m 2 min 0 min 662 W/m 4,5 km/h (1 Bft) 97,87 %
20.04.2018 11:22 23,9 C 32,2 C 29,4 C 61 % 0 lf 1022,2 hPa 0,0 l/m 2 min 0 min 653 W/m 9,0 km/h (2 Bft) 95,65 %
20.04.2018 11:24 24,1 C 31,1 C 29,4 C 59 % 0 lf 1022,1 hPa 0,0 l/m 2 min 0 min 657 W/m 9,0 km/h (2 Bft) 95,74 %
20.04.2018 11:26 24,1 C 31,7 C 30,0 C 59 % 0 lf 1022,1 hPa 0,0 l/m 2 min 0 min 676 W/m 11,3 km/h (2 Bft) 95,74 %
20.04.2018 11:28 24,2 C 31,1 C 30,0 C 59 % 0 lf 1022,1 hPa 0,0 l/m 2 min 0 min 681 W/m 13,5 km/h (3 Bft) 89,36 %
20.04.2018 11:30 24,3 C 31,7 C 30,0 C 58 % 0 lf 1022,1 hPa 0,0 l/m 2 min 0 min 686 W/m 9,0 km/h (2 Bft) 95,74 %
20.04.2018 11:32 24,3 C 31,1 C 30,6 C 58 % 0 lf 1022,1 hPa 0,0 l/m 2 min 0 min 690 W/m 6,8 km/h (2 Bft) 95,74 %
20.04.2018 11:34 24,4 C 30,6 C 30,6 C 58 % 0 lf 1022,1 hPa 0,0 l/m 2 min 0 min 690 W/m 15,8 km/h (3 Bft) 93,48 %
20.04.2018 11:36 24,5 C 31,7 C 30,6 C 58 % 0 lf 1022,1 hPa 0,0 l/m 2 min 0 min 702 W/m 11,3 km/h (2 Bft) 95,74 %
20.04.2018 11:38 24,6 C 31,7 C 30,0 C 58 % 0 lf 1022,1 hPa 0,0 l/m 2 min 0 min 701 W/m 15,8 km/h (3 Bft) 95,74 %
20.04.2018 11:40 24,7 C 31,7 C 30,0 C 58 % 0 lf 1022,1 hPa 0,0 l/m 2 min 0 min 699 W/m 15,8 km/h (3 Bft) 95,74 %
20.04.2018 11:42 24,8 C 31,1 C 30,0 C 57 % 0 lf 1022,0 hPa 0,0 l/m 2 min 0 min 703 W/m 11,3 km/h (2 Bft) 97,87 %
20.04.2018 11:44 24,8 C 31,7 C 30,0 C 57 % 0 lf 1022,0 hPa 0,0 l/m 2 min 0 min 702 W/m 13,5 km/h (3 Bft) 93,48 %
20.04.2018 11:46 24,9 C 31,7 C 30,6 C 56 % 0 lf 1022,1 hPa 0,0 l/m 2 min 0 min 701 W/m 11,3 km/h (2 Bft) 100,00 %
20.04.2018 11:48 25,1 C 32,8 C 30,6 C 57 % 0 lf 1022,0 hPa 0,0 l/m 2 min 0 min 707 W/m 9,0 km/h (2 Bft) 97,87 %
20.04.2018 11:50 25,1 C 31,1 C 30,6 C 56 % 0 lf 1022,0 hPa 0,0 l/m 2 min 0 min 688 W/m 13,5 km/h (3 Bft) 91,49 %
20.04.2018 11:52 25,1 C 31,1 C 30,6 C 56 % 0 lf 1022,0 hPa 0,0 l/m 2 min 0 min 683 W/m 11,3 km/h (2 Bft) 95,74 %
20.04.2018 11:54 25,2 C 31,1 C 31,1 C 56 % 0 lf 1022,1 hPa 0,0 l/m 2 min 0 min 649 W/m 13,5 km/h (3 Bft) 95,74 %
20.04.2018 11:56 25,3 C 31,1 C 31,7 C 56 % 0 lf 1022,0 hPa 0,0 l/m 2 min 0 min 546 W/m 11,3 km/h (2 Bft) 95,65 %
20.04.2018 11:58 25,4 C 32,8 C 32,2 C 57 % 0 lf 1022,1 hPa 0,0 l/m 2 min 0 min 382 W/m 13,5 km/h (3 Bft) 93,62 %
20.04.2018 12:00 25,4 C 32,2 C 32,2 C 55 % 0 lf 1022,1 hPa 0,0 l/m 0 min 0 min 282 W/m 11,3 km/h (2 Bft) 95,74 %
20.04.2018 12:02 25,6 C 31,1 C 31,7 C 55 % 0 lf 1022,1 hPa 0,0 l/m 0 min 0 min 240 W/m 18,0 km/h (3 Bft) 91,49 %
20.04.2018 12:04 25,6 C 31,1 C 30,6 C 54 % 0 lf 1022,1 hPa 0,0 l/m 0 min 0 min 320 W/m 15,8 km/h (3 Bft) 93,62 %
20.04.2018 12:08 25,7 C 31,7 C 30,0 C 55 % 0 lf 1022,1 hPa 0,0 l/m 0 min 0 min 242 W/m 15,8 km/h (3 Bft) 95,74 %
20.04.2018 12:10 25,8 C 30,6 C 30,6 C 54 % 0 lf 1022,0 hPa 0,0 l/m 0 min 0 min 344 W/m 22,5 km/h (4 Bft) 97,87 %
20.04.2018 12:12 25,8 C 30,6 C 31,1 C 54 % 0 lf 1022,1 hPa 0,0 l/m 2 min 0 min 747 W/m 18,0 km/h (3 Bft) 95,74 %
20.04.2018 12:14 25,8 C 30,6 C 31,1 C 54 % 0 lf 1022,0 hPa 0,0 l/m 2 min 0 min 747 W/m 15,8 km/h (3 Bft) 95,74 %
20.04.2018 12:16 25,8 C 30,6 C 31,1 C 55 % 0 lf 1022,0 hPa 0,0 l/m 2 min 0 min 736 W/m 15,8 km/h (3 Bft) 93,62 %
20.04.2018 12:18 25,9 C 32,2 C 30,6 C 55 % 0 lf 1022,0 hPa 0,0 l/m 2 min 0 min 742 W/m 15,8 km/h (3 Bft) 93,62 %
20.04.2018 12:20 25,9 C 31,7 C 31,1 C 54 % 0 lf 1022,0 hPa 0,0 l/m 2 min 0 min 742 W/m 15,8 km/h (3 Bft) 95,65 %
20.04.2018 12:22 26,1 C 32,8 C 31,1 C 56 % 0 lf 1022,0 hPa 0,0 l/m 2 min 0 min 750 W/m 11,3 km/h (2 Bft) 97,87 %
20.04.2018 12:24 26,1 C 32,2 C 30,6 C 55 % 0 lf 1022,0 hPa 0,0 l/m 2 min 0 min 761 W/m 15,8 km/h (3 Bft) 97,87 %
20.04.2018 12:26 26,2 C 31,7 C 31,1 C 55 % 0 lf 1022,0 hPa 0,0 l/m 2 min 0 min 764 W/m 13,5 km/h (3 Bft) 91,49 %
20.04.2018 12:28 26,2 C 32,2 C 31,1 C 55 % 0 lf 1022,0 hPa 0,0 l/m 2 min 0 min 766 W/m 9,0 km/h (2 Bft) 97,87 %
20.04.2018 12:30 26,3 C 33,3 C 31,1 C 56 % 0 lf 1022,0 hPa 0,0 l/m 2 min 0 min 770 W/m 11,3 km/h (2 Bft) 97,87 %
20.04.2018 12:32 26,4 C 32,8 C 31,7 C 55 % 0 lf 1021,9 hPa 0,0 l/m 2 min 0 min 768 W/m 13,5 km/h (3 Bft) 93,48 %
20.04.2018 12:34 26,4 C 31,7 C 31,7 C 54 % 0 lf 1021,9 hPa 0,0 l/m 2 min 0 min 772 W/m 18,0 km/h (3 Bft) 95,74 %
20.04.2018 12:36 26,5 C 31,1 C 32,2 C 53 % 0 lf 1022,0 hPa 0,0 l/m 2 min 0 min 768 W/m 15,8 km/h (3 Bft) 97,87 %
20.04.2018 12:38 26,6 C 31,1 C 31,1 C 53 % 0 lf 1022,0 hPa 0,0 l/m 2 min 0 min 767 W/m 11,3 km/h (2 Bft) 100,00 %
20.04.2018 12:40 26,6 C 31,1 C 30,6 C 54 % 0 lf 1021,9 hPa 0,0 l/m 2 min 0 min 767 W/m 13,5 km/h (3 Bft) 100,00 %
20.04.2018 12:42 26,6 C 32,2 C 30,6 C 54 % 0 lf 1021,9 hPa 0,0 l/m 2 min 0 min 769 W/m 13,5 km/h (3 Bft) 100,00 %
20.04.2018 12:44 26,7 C 33,9 C 30,6 C 55 % 0 lf 1021,9 hPa 0,0 l/m 2 min 0 min 767 W/m 18,0 km/h (3 Bft) 95,74 %
20.04.2018 12:46 26,7 C 33,3 C 31,1 C 54 % 0 lf 1021,9 hPa 0,0 l/m 2 min 0 min 766 W/m 18,0 km/h (3 Bft) 95,74 %
20.04.2018 12:48 26,8 C 33,9 C 30,6 C 55 % 0 lf 1021,9 hPa 0,0 l/m 2 min 0 min 769 W/m 15,8 km/h (3 Bft) 97,87 %
20.04.2018 12:50 26,9 C 32,8 C 30,6 C 53 % 0 lf 1021,9 hPa 0,0 l/m 2 min 0 min 773 W/m 15,8 km/h (3 Bft) 97,87 %
20.04.2018 12:52 26,9 C 32,8 C 30,6 C 53 % 0 lf 1021,9 hPa 0,0 l/m 2 min 0 min 774 W/m 15,8 km/h (3 Bft) 97,87 %
20.04.2018 12:54 27,0 C 32,8 C 30,0 C 53 % 0 lf 1021,9 hPa 0,0 l/m 2 min 0 min 773 W/m 18,0 km/h (3 Bft) 93,62 %
20.04.2018 12:56 27,1 C 33,3 C 30,0 C 54 % 0 lf 1021,9 hPa 0,0 l/m 2 min 0 min 772 W/m 13,5 km/h (3 Bft) 95,65 %
20.04.2018 12:58 27,2 C 33,3 C 29,4 C 53 % 0 lf 1021,8 hPa 0,0 l/m 2 min 0 min 774 W/m 15,8 km/h (3 Bft) 95,74 %
20.04.2018 13:00 27,2 C 33,3 C 28,9 C 52 % 0 lf 1021,8 hPa 0,0 l/m 2 min 0 min 776 W/m 9,0 km/h (2 Bft) 97,87 %
20.04.2018 13:02 27,3 C 32,8 C 28,3 C 52 % 0 lf 1021,8 hPa 0,0 l/m 2 min 0 min 774 W/m 11,3 km/h (2 Bft) 97,87 %
20.04.2018 13:04 27,3 C 32,8 C 27,8 C 52 % 0 lf 1021,8 hPa 0,0 l/m 2 min 0 min 772 W/m 11,3 km/h (2 Bft) 95,74 %
20.04.2018 13:06 27,4 C 34,4 C 27,8 C 52 % 0 lf 1021,7 hPa 0,0 l/m 2 min 0 min 774 W/m 13,5 km/h (3 Bft) 95,65 %
20.04.2018 13:08 27,4 C 34,4 C 27,8 C 53 % 0 lf 1021,7 hPa 0,0 l/m 2 min 0 min 770 W/m 6,8 km/h (2 Bft) 93,62 %
20.04.2018 13:10 27,6 C 33,3 C 27,8 C 52 % 0 lf 1021,7 hPa 0,0 l/m 2 min 0 min 751 W/m 18,0 km/h (3 Bft) 93,62 %
20.04.2018 13:12 27,6 C 33,3 C 27,8 C 52 % 0 lf 1021,7 hPa 0,0 l/m 2 min 0 min 768 W/m 18,0 km/h (3 Bft) 95,74 %
20.04.2018 13:14 27,7 C 33,9 C 27,8 C 52 % 0 lf 1021,7 hPa 0,0 l/m 2 min 0 min 776 W/m 20,3 km/h (4 Bft) 93,62 %
20.04.2018 13:16 27,8 C 34,4 C 27,8 C 53 % 0 lf 1021,6 hPa 0,0 l/m 2 min 0 min 775 W/m 18,0 km/h (3 Bft) 93,62 %
20.04.2018 13:18 27,9 C 34,4 C 27,8 C 53 % 0 lf 1021,6 hPa 0,0 l/m 2 min 0 min 781 W/m 9,0 km/h (2 Bft) 95,65 %
20.04.2018 13:20 27,9 C 34,4 C 27,8 C 51 % 0 lf 1021,6 hPa 0,0 l/m 2 min 0 min 781 W/m 13,5 km/h (3 Bft) 95,74 %
20.04.2018 13:22 28,0 C 36,1 C 27,8 C 52 % 0 lf 1021,6 hPa 0,0 l/m 2 min 0 min 781 W/m 15,8 km/h (3 Bft) 93,62 %
20.04.2018 13:24 28,1 C 35,0 C 27,8 C 52 % 0 lf 1021,6 hPa 0,0 l/m 2 min 0 min 783 W/m 18,0 km/h (3 Bft) 97,87 %
20.04.2018 13:26 28,2 C 35,0 C 27,2 C 51 % 0 lf 1021,6 hPa 0,0 l/m 2 min 0 min 779 W/m 15,8 km/h (3 Bft) 93,62 %
20.04.2018 13:28 28,2 C 33,3 C 27,2 C 50 % 0 lf 1021,6 hPa 0,0 l/m 2 min 0 min 777 W/m 18,0 km/h (3 Bft) 95,74 %
20.04.2018 13:30 28,2 C 34,4 C 27,2 C 51 % 0 lf 1021,5 hPa 0,0 l/m 2 min 0 min 777 W/m 18,0 km/h (3 Bft) 95,65 %
20.04.2018 13:32 28,2 C 33,9 C 27,2 C 50 % 0 lf 1021,5 hPa 0,0 l/m 2 min 0 min 776 W/m 15,8 km/h (3 Bft) 95,74 %
20.04.2018 13:34 28,2 C 34,4 C 27,2 C 49 % 0 lf 1021,4 hPa 0,0 l/m 2 min 0 min 766 W/m 18,0 km/h (3 Bft) 95,74 %
20.04.2018 13:36 28,3 C 33,9 C 27,2 C 50 % 0 lf 1021,4 hPa 0,0 l/m 2 min 0 min 762 W/m 15,8 km/h (3 Bft) 97,87 %
20.04.2018 13:38 28,3 C 33,9 C 27,2 C 51 % 0 lf 1021,4 hPa 0,0 l/m 2 min 0 min 768 W/m 15,8 km/h (3 Bft) 100,00 %
20.04.2018 13:40 28,3 C 34,4 C 27,2 C 51 % 0 lf 1021,4 hPa 0,0 l/m 2 min 0 min 768 W/m 11,3 km/h (2 Bft) 100,00 %
20.04.2018 13:42 28,4 C 35,0 C 27,2 C 51 % 0 lf 1021,3 hPa 0,0 l/m 2 min 0 min 761 W/m 15,8 km/h (3 Bft) 93,48 %
20.04.2018 13:44 28,4 C 35,0 C 27,2 C 52 % 0 lf 1021,3 hPa 0,0 l/m 2 min 0 min 760 W/m 15,8 km/h (3 Bft) 97,87 %
20.04.2018 13:46 28,4 C 33,9 C 27,2 C 50 % 0 lf 1021,3 hPa 0,0 l/m 2 min 0 min 758 W/m 15,8 km/h (3 Bft) 100,00 %
20.04.2018 13:48 28,5 C 35,6 C 26,7 C 49 % 0 lf 1021,3 hPa 0,0 l/m 2 min 0 min 758 W/m 4,5 km/h (1 Bft) 100,00 %
20.04.2018 13:50 28,6 C 36,7 C 26,7 C 50 % 0 lf 1021,2 hPa 0,0 l/m 2 min 0 min 759 W/m 9,0 km/h (2 Bft) 100,00 %
20.04.2018 13:52 28,6 C 36,7 C 27,2 C 50 % 0 lf 1021,3 hPa 0,0 l/m 2 min 0 min 763 W/m 13,5 km/h (3 Bft) 100,00 %
20.04.2018 13:54 28,7 C 35,0 C 27,2 C 50 % 0 lf 1021,2 hPa 0,0 l/m 2 min 0 min 762 W/m 18,0 km/h (3 Bft) 100,00 %
20.04.2018 13:56 28,7 C 33,3 C 27,2 C 49 % 0 lf 1021,2 hPa 0,0 l/m 2 min 0 min 757 W/m 18,0 km/h (3 Bft) 95,74 %
20.04.2018 13:58 28,7 C 32,8 C 27,2 C 49 % 0 lf 1021,3 hPa 0,0 l/m 2 min 0 min 758 W/m 13,5 km/h (3 Bft) 100,00 %
20.04.2018 14:00 28,7 C 32,8 C 27,2 C 49 % 0 lf 1021,2 hPa 0,0 l/m 2 min 0 min 758 W/m 15,8 km/h (3 Bft) 100,00 %
20.04.2018 14:02 28,7 C 33,9 C 27,2 C 49 % 0 lf 1021,3 hPa 0,0 l/m 2 min 0 min 757 W/m 15,8 km/h (3 Bft) 97,87 %
20.04.2018 14:04 28,7 C 35,6 C 27,2 C 50 % 0 lf 1021,2 hPa 0,0 l/m 2 min 0 min 757 W/m 13,5 km/h (3 Bft) 100,00 %
20.04.2018 14:06 28,7 C 34,4 C 27,2 C 47 % 0 lf 1021,3 hPa 0,0 l/m 2 min 0 min 755 W/m 18,0 km/h (3 Bft) 97,83 %
20.04.2018 14:08 28,7 C 35,0 C 27,2 C 47 % 0 lf 1021,2 hPa 0,0 l/m 2 min 0 min 755 W/m 11,3 km/h (2 Bft) 97,87 %
20.04.2018 14:10 28,7 C 33,3 C 27,2 C 47 % 0 lf 1021,2 hPa 0,0 l/m 2 min 0 min 750 W/m 6,8 km/h (2 Bft) 97,87 %
20.04.2018 14:12 28,7 C 34,4 C 27,2 C 48 % 0 lf 1021,1 hPa 0,0 l/m 2 min 0 min 752 W/m 13,5 km/h (3 Bft) 97,87 %
20.04.2018 14:14 28,6 C 32,2 C 27,2 C 46 % 0 lf 1021,1 hPa 0,0 l/m 2 min 0 min 752 W/m 18,0 km/h (3 Bft) 100,00 %
20.04.2018 14:16 28,6 C 32,8 C 27,2 C 47 % 0 lf 1021,1 hPa 0,0 l/m 2 min 0 min 749 W/m 15,8 km/h (3 Bft) 97,83 %
20.04.2018 14:18 28,6 C 32,8 C 27,2 C 46 % 0 lf 1021,1 hPa 0,0 l/m 2 min 0 min 754 W/m 22,5 km/h (4 Bft) 100,00 %
20.04.2018 14:20 28,6 C 34,4 C 27,2 C 47 % 0 lf 1021,0 hPa 0,0 l/m 2 min 0 min 753 W/m 15,8 km/h (3 Bft) 100,00 %
20.04.2018 14:22 28,6 C 35,0 C 27,2 C 46 % 0 lf 1021,1 hPa 0,0 l/m 2 min 0 min 756 W/m 18,0 km/h (3 Bft) 100,00 %
20.04.2018 14:24 28,6 C 35,6 C 27,2 C 46 % 0 lf 1021,0 hPa 0,0 l/m 2 min 0 min 754 W/m 15,8 km/h (3 Bft) 100,00 %
20.04.2018 14:26 28,6 C 36,1 C 27,2 C 46 % 0 lf 1021,0 hPa 0,0 l/m 2 min 0 min 754 W/m 9,0 km/h (2 Bft) 95,74 %
20.04.2018 14:28 28,6 C 35,6 C 27,2 C 45 % 0 lf 1020,9 hPa 0,0 l/m 2 min 0 min 739 W/m 9,0 km/h (2 Bft) 100,00 %
20.04.2018 14:30 28,6 C 35,6 C 27,2 C 45 % 0 lf 1020,9 hPa 0,0 l/m 2 min 0 min 746 W/m 9,0 km/h (2 Bft) 100,00 %
20.04.2018 14:32 28,6 C 33,9 C 27,2 C 46 % 0 lf 1021,0 hPa 0,0 l/m 2 min 0 min 746 W/m 15,8 km/h (3 Bft) 97,87 %
20.04.2018 14:34 28,7 C 35,6 C 27,8 C 47 % 0 lf 1020,9 hPa 0,0 l/m 2 min 0 min 747 W/m 13,5 km/h (3 Bft) 93,62 %
20.04.2018 14:36 28,7 C 34,4 C 27,8 C 46 % 0 lf 1021,0 hPa 0,0 l/m 2 min 0 min 749 W/m 20,3 km/h (4 Bft) 95,74 %
20.04.2018 14:38 28,7 C 33,9 C 27,8 C 45 % 0 lf 1020,9 hPa 0,0 l/m 2 min 0 min 743 W/m 15,8 km/h (3 Bft) 97,87 %
20.04.2018 14:40 28,7 C 35,0 C 27,8 C 46 % 0 lf 1020,9 hPa 0,0 l/m 2 min 0 min 737 W/m 13,5 km/h (3 Bft) 95,65 %
20.04.2018 14:42 28,7 C 35,0 C 27,8 C 47 % 0 lf 1020,9 hPa 0,0 l/m 2 min 0 min 732 W/m 13,5 km/h (3 Bft) 95,74 %
20.04.2018 14:44 28,7 C 36,1 C 27,8 C 47 % 0 lf 1020,9 hPa 0,0 l/m 2 min 0 min 728 W/m 18,0 km/h (3 Bft) 95,74 %
20.04.2018 14:46 28,8 C 35,6 C 27,8 C 47 % 0 lf 1020,9 hPa 0,0 l/m 2 min 0 min 724 W/m 13,5 km/h (3 Bft) 97,87 %
20.04.2018 14:48 28,8 C 35,0 C 27,8 C 47 % 0 lf 1020,8 hPa 0,0 l/m 2 min 0 min 723 W/m 18,0 km/h (3 Bft) 97,87 %
20.04.2018 14:50 28,8 C 35,6 C 27,8 C 49 % 0 lf 1020,8 hPa 0,0 l/m 2 min 0 min 724 W/m 11,3 km/h (2 Bft) 93,62 %
20.04.2018 14:52 28,8 C 34,4 C 27,8 C 46 % 0 lf 1020,8 hPa 0,0 l/m 2 min 0 min 728 W/m 20,3 km/h (4 Bft) 97,83 %
20.04.2018 14:54 28,8 C 33,9 C 28,3 C 46 % 0 lf 1020,8 hPa 0,0 l/m 2 min 0 min 718 W/m 13,5 km/h (3 Bft) 95,74 %
20.04.2018 14:56 28,8 C 33,9 C 28,3 C 46 % 0 lf 1020,7 hPa 0,0 l/m 2 min 0 min 712 W/m 15,8 km/h (3 Bft) 93,62 %
20.04.2018 14:58 28,8 C 32,8 C 28,3 C 46 % 0 lf 1020,8 hPa 0,0 l/m 2 min 0 min 711 W/m 15,8 km/h (3 Bft) 93,62 %
20.04.2018 15:00 28,8 C 32,2 C 28,9 C 45 % 0 lf 1020,7 hPa 0,0 l/m 2 min 0 min 697 W/m 13,5 km/h (3 Bft) 93,62 %
20.04.2018 15:02 28,8 C 33,9 C 29,4 C 46 % 0 lf 1020,7 hPa 0,0 l/m 2 min 0 min 702 W/m 4,5 km/h (1 Bft) 95,74 %
20.04.2018 15:04 28,8 C 35,6 C 30,0 C 48 % 0 lf 1020,7 hPa 0,0 l/m 2 min 0 min 700 W/m 6,8 km/h (2 Bft) 93,48 %
20.04.2018 15:06 28,9 C 36,7 C 30,6 C 47 % 0 lf 1020,6 hPa 0,0 l/m 2 min 0 min 708 W/m 9,0 km/h (2 Bft) 93,62 %
20.04.2018 15:08 28,9 C 35,0 C 31,1 C 47 % 0 lf 1020,6 hPa 0,0 l/m 2 min 0 min 680 W/m 15,8 km/h (3 Bft) 89,36 %
20.04.2018 15:10 28,9 C 33,9 C 31,7 C 47 % 0 lf 1020,5 hPa 0,0 l/m 2 min 0 min 704 W/m 18,0 km/h (3 Bft) 93,62 %
20.04.2018 15:12 28,9 C 32,8 C 32,2 C 46 % 0 lf 1020,5 hPa 0,0 l/m 2 min 0 min 690 W/m 15,8 km/h (3 Bft) 93,62 %
20.04.2018 15:14 28,9 C 33,3 C 32,2 C 46 % 0 lf 1020,6 hPa 0,0 l/m 2 min 0 min 694 W/m 22,5 km/h (4 Bft) 95,74 %
20.04.2018 15:16 28,9 C 32,8 C 32,8 C 46 % 0 lf 1020,5 hPa 0,0 l/m 2 min 0 min 692 W/m 15,8 km/h (3 Bft) 95,65 %
20.04.2018 15:18 29,0 C 33,9 C 32,8 C 47 % 0 lf 1020,5 hPa 0,0 l/m 2 min 0 min 630 W/m 11,3 km/h (2 Bft) 93,62 %
20.04.2018 15:20 29,0 C 33,9 C 32,8 C 45 % 0 lf 1020,5 hPa 0,0 l/m 2 min 0 min 576 W/m 15,8 km/h (3 Bft) 93,62 %
20.04.2018 15:22 29,0 C 35,0 C 33,9 C 45 % 0 lf 1020,5 hPa 0,0 l/m 2 min 0 min 707 W/m 13,5 km/h (3 Bft) 93,62 %
20.04.2018 15:24 29,0 C 35,0 C 33,3 C 44 % 0 lf 1020,5 hPa 0,0 l/m 2 min 0 min 701 W/m 13,5 km/h (3 Bft) 93,62 %
20.04.2018 15:26 29,1 C 36,1 C 33,9 C 43 % 0 lf 1020,4 hPa 0,0 l/m 2 min 0 min 688 W/m 11,3 km/h (2 Bft) 93,48 %
20.04.2018 15:28 29,1 C 36,7 C 33,9 C 43 % 0 lf 1020,4 hPa 0,0 l/m 2 min 0 min 678 W/m 13,5 km/h (3 Bft) 97,87 %
20.04.2018 15:30 29,1 C 36,1 C 32,8 C 42 % 0 lf 1020,4 hPa 0,0 l/m 2 min 0 min 670 W/m 11,3 km/h (2 Bft) 93,62 %
20.04.2018 15:32 29,1 C 36,1 C 31,7 C 42 % 0 lf 1020,4 hPa 0,0 l/m 2 min 0 min 671 W/m 11,3 km/h (2 Bft) 95,74 %
20.04.2018 15:34 29,1 C 35,6 C 31,1 C 43 % 0 lf 1020,4 hPa 0,0 l/m 2 min 0 min 670 W/m 18,0 km/h (3 Bft) 95,74 %
20.04.2018 15:36 29,1 C 35,6 C 30,6 C 44 % 0 lf 1020,4 hPa 0,0 l/m 2 min 0 min 665 W/m 27,0 km/h (4 Bft) 95,74 %
20.04.2018 15:38 29,2 C 35,0 C 30,0 C 44 % 0 lf 1020,3 hPa 0,0 l/m 2 min 0 min 659 W/m 24,8 km/h (4 Bft) 97,83 %
20.04.2018 15:40 29,2 C 35,0 C 29,4 C 44 % 0 lf 1020,3 hPa 0,0 l/m 2 min 0 min 660 W/m 15,8 km/h (3 Bft) 95,74 %
20.04.2018 15:42 29,3 C 36,1 C 29,4 C 45 % 0 lf 1020,4 hPa 0,0 l/m 2 min 0 min 666 W/m 9,0 km/h (2 Bft) 93,62 %
20.04.2018 15:44 29,3 C 35,6 C 30,0 C 44 % 0 lf 1020,4 hPa 0,0 l/m 2 min 0 min 664 W/m 13,5 km/h (3 Bft) 93,62 %
20.04.2018 15:46 29,4 C 35,0 C 29,4 C 44 % 0 lf 1020,4 hPa 0,0 l/m 2 min 0 min 655 W/m 11,3 km/h (2 Bft) 95,74 %
20.04.2018 15:48 29,5 C 35,0 C 29,4 C 43 % 0 lf 1020,3 hPa 0,0 l/m 2 min 0 min 648 W/m 9,0 km/h (2 Bft) 95,74 %
20.04.2018 15:50 29,5 C 35,0 C 28,9 C 45 % 0 lf 1020,3 hPa 0,0 l/m 2 min 0 min 651 W/m 15,8 km/h (3 Bft) 95,65 %
20.04.2018 15:52 29,6 C 35,6 C 29,4 C 43 % 0 lf 1020,3 hPa 0,0 l/m 2 min 0 min 652 W/m 22,5 km/h (4 Bft) 93,62 %
20.04.2018 15:54 29,6 C 35,6 C 29,4 C 43 % 0 lf 1020,3 hPa 0,0 l/m 2 min 0 min 629 W/m 20,3 km/h (4 Bft) 95,74 %
20.04.2018 15:56 29,6 C 35,6 C 29,4 C 42 % 0 lf 1020,3 hPa 0,0 l/m 2 min 0 min 646 W/m 15,8 km/h (3 Bft) 93,62 %
20.04.2018 15:58 29,6 C 35,6 C 29,4 C 42 % 0 lf 1020,3 hPa 0,0 l/m 2 min 0 min 647 W/m 15,8 km/h (3 Bft) 93,62 %
20.04.2018 16:00 29,7 C 35,6 C 29,4 C 42 % 0 lf 1020,2 hPa 0,0 l/m 2 min 0 min 649 W/m 18,0 km/h (3 Bft) 93,62 %
20.04.2018 16:02 29,7 C 35,0 C 29,4 C 43 % 0 lf 1020,3 hPa 0,0 l/m 2 min 0 min 644 W/m 18,0 km/h (3 Bft) 91,30 %
20.04.2018 16:04 29,7 C 34,4 C 29,4 C 43 % 0 lf 1020,2 hPa 0,0 l/m 2 min 0 min 630 W/m 11,3 km/h (2 Bft) 95,74 %
20.04.2018 16:06 29,7 C 35,0 C 29,4 C 43 % 0 lf 1020,1 hPa 0,0 l/m 2 min 0 min 628 W/m 13,5 km/h (3 Bft) 95,74 %
20.04.2018 16:08 29,7 C 34,4 C 28,9 C 44 % 0 lf 1020,1 hPa 0,0 l/m 2 min 0 min 625 W/m 18,0 km/h (3 Bft) 95,74 %
20.04.2018 16:10 29,7 C 33,9 C 28,9 C 43 % 0 lf 1020,1 hPa 0,0 l/m 2 min 0 min 619 W/m 24,8 km/h (4 Bft) 95,92 %
20.04.2018 16:12 29,7 C 33,3 C 28,9 C 42 % 0 lf 1020,0 hPa 0,0 l/m 2 min 0 min 611 W/m 18,0 km/h (3 Bft) 97,87 %
20.04.2018 16:14 29,7 C 33,9 C 28,9 C 43 % 0 lf 1019,9 hPa 0,0 l/m 2 min 0 min 604 W/m 11,3 km/h (2 Bft) 93,62 %
20.04.2018 16:16 29,7 C 34,4 C 28,9 C 43 % 0 lf 1019,9 hPa 0,0 l/m 2 min 0 min 597 W/m 11,3 km/h (2 Bft) 89,36 %
20.04.2018 16:18 29,8 C 34,4 C 28,3 C 43 % 0 lf 1019,9 hPa 0,0 l/m 2 min 0 min 586 W/m 15,8 km/h (3 Bft) 97,83 %
20.04.2018 16:20 29,8 C 33,3 C 28,3 C 42 % 0 lf 1020,0 hPa 0,0 l/m 2 min 0 min 583 W/m 18,0 km/h (3 Bft) 95,74 %
20.04.2018 16:22 29,8 C 32,8 C 28,9 C 42 % 0 lf 1019,9 hPa 0,0 l/m 2 min 0 min 579 W/m 11,3 km/h (2 Bft) 97,87 %
20.04.2018 16:24 29,8 C 32,8 C 28,3 C 41 % 0 lf 1020,0 hPa 0,0 l/m 2 min 0 min 568 W/m 13,5 km/h (3 Bft) 97,87 %
20.04.2018 16:26 29,8 C 32,8 C 28,3 C 42 % 0 lf 1020,0 hPa 0,0 l/m 2 min 0 min 552 W/m 9,0 km/h (2 Bft) 97,87 %
20.04.2018 16:28 29,8 C 32,8 C 28,3 C 43 % 0 lf 1019,9 hPa 0,0 l/m 2 min 0 min 563 W/m 20,3 km/h (4 Bft) 97,87 %
20.04.2018 16:30 29,8 C 32,8 C 28,3 C 42 % 0 lf 1019,9 hPa 0,0 l/m 2 min 0 min 575 W/m 20,3 km/h (4 Bft) 91,30 %
20.04.2018 16:32 29,8 C 33,3 C 28,3 C 42 % 0 lf 1019,9 hPa 0,0 l/m 2 min 0 min 559 W/m 9,0 km/h (2 Bft) 93,62 %
20.04.2018 16:34 29,8 C 32,2 C 27,8 C 41 % 0 lf 1019,9 hPa 0,0 l/m 2 min 0 min 548 W/m 15,8 km/h (3 Bft) 97,87 %
20.04.2018 16:36 29,8 C 31,7 C 27,8 C 41 % 0 lf 1019,8 hPa 0,0 l/m 2 min 0 min 527 W/m 15,8 km/h (3 Bft) 100,00 %
20.04.2018 16:38 29,7 C 32,2 C 27,8 C 42 % 0 lf 1019,8 hPa 0,0 l/m 2 min 0 min 509 W/m 11,3 km/h (2 Bft) 100,00 %
20.04.2018 16:40 29,7 C 31,7 C 27,8 C 44 % 0 lf 1019,8 hPa 0,0 l/m 2 min 0 min 517 W/m 9,0 km/h (2 Bft) 97,87 %
20.04.2018 16:42 29,8 C 31,7 C 27,8 C 44 % 0 lf 1019,8 hPa 0,0 l/m 2 min 0 min 527 W/m 18,0 km/h (3 Bft) 93,48 %
20.04.2018 16:44 29,8 C 31,1 C 28,3 C 43 % 0 lf 1019,8 hPa 0,0 l/m 2 min 0 min 528 W/m 18,0 km/h (3 Bft) 97,87 %
20.04.2018 16:46 29,8 C 31,7 C 28,3 C 43 % 0 lf 1019,7 hPa 0,0 l/m 2 min 0 min 528 W/m 9,0 km/h (2 Bft) 97,87 %
20.04.2018 16:48 29,8 C 31,7 C 27,8 C 43 % 0 lf 1019,7 hPa 0,0 l/m 2 min 0 min 505 W/m 9,0 km/h (2 Bft) 95,74 %
20.04.2018 16:50 29,8 C 31,1 C 27,8 C 41 % 0 lf 1019,7 hPa 0,0 l/m 2 min 0 min 510 W/m 15,8 km/h (3 Bft) 97,87 %
20.04.2018 16:52 29,9 C 30,6 C 27,8 C 42 % 0 lf 1019,7 hPa 0,0 l/m 2 min 0 min 520 W/m 15,8 km/h (3 Bft) 97,87 %
20.04.2018 16:54 29,9 C 30,6 C 27,8 C 42 % 0 lf 1019,6 hPa 0,0 l/m 2 min 0 min 505 W/m 22,5 km/h (4 Bft) 95,65 %
20.04.2018 16:56 29,9 C 30,0 C 27,8 C 41 % 0 lf 1019,7 hPa 0,0 l/m 2 min 0 min 474 W/m 18,0 km/h (3 Bft) 95,74 %
20.04.2018 16:58 29,8 C 30,0 C 27,8 C 41 % 0 lf 1019,7 hPa 0,0 l/m 2 min 0 min 457 W/m 13,5 km/h (3 Bft) 95,74 %
20.04.2018 17:00 29,8 C 30,0 C 27,2 C 42 % 0 lf 1019,7 hPa 0,0 l/m 2 min 0 min 481 W/m 9,0 km/h (2 Bft) 97,87 %
20.04.2018 17:02 29,8 C 30,0 C 27,2 C 42 % 0 lf 1019,7 hPa 0,0 l/m 2 min 0 min 474 W/m 11,3 km/h (2 Bft) 97,87 %
20.04.2018 17:04 29,8 C 30,0 C 27,8 C 41 % 0 lf 1019,7 hPa 0,0 l/m 2 min 0 min 467 W/m 13,5 km/h (3 Bft) 97,87 %
20.04.2018 17:06 29,8 C 30,6 C 27,2 C 41 % 0 lf 1019,6 hPa 0,0 l/m 2 min 0 min 469 W/m 18,0 km/h (3 Bft) 95,65 %
20.04.2018 17:08 29,8 C 30,6 C 27,2 C 41 % 0 lf 1019,8 hPa 0,0 l/m 2 min 0 min 470 W/m 15,8 km/h (3 Bft) 95,74 %
20.04.2018 17:10 29,8 C 30,6 C 27,2 C 41 % 0 lf 1019,6 hPa 0,0 l/m 2 min 0 min 473 W/m 11,3 km/h (2 Bft) 100,00 %
20.04.2018 17:12 29,8 C 30,6 C 27,2 C 41 % 0 lf 1019,6 hPa 0,0 l/m 2 min 0 min 480 W/m 9,0 km/h (2 Bft) 97,87 %
20.04.2018 17:14 29,8 C 30,6 C 27,2 C 42 % 0 lf 1019,7 hPa 0,0 l/m 2 min 0 min 463 W/m 11,3 km/h (2 Bft) 100,00 %
20.04.2018 17:16 29,8 C 31,1 C 27,2 C 42 % 0 lf 1019,6 hPa 0,0 l/m 2 min 0 min 455 W/m 9,0 km/h (2 Bft) 100,00 %
20.04.2018 17:18 29,8 C 31,1 C 27,2 C 40 % 0 lf 1019,5 hPa 0,0 l/m 2 min 0 min 451 W/m 9,0 km/h (2 Bft) 100,00 %
20.04.2018 17:20 29,9 C 31,1 C 27,2 C 41 % 0 lf 1019,5 hPa 0,0 l/m 2 min 0 min 439 W/m 13,5 km/h (3 Bft) 97,87 %
20.04.2018 17:22 29,9 C 30,0 C 27,2 C 41 % 0 lf 1019,5 hPa 0,0 l/m 2 min 0 min 427 W/m 13,5 km/h (3 Bft) 93,62 %
20.04.2018 17:24 29,8 C 30,0 C 27,2 C 41 % 0 lf 1019,5 hPa 0,0 l/m 2 min 0 min 422 W/m 18,0 km/h (3 Bft) 91,49 %
20.04.2018 17:26 29,8 C 30,0 C 27,2 C 41 % 0 lf 1019,5 hPa 0,0 l/m 2 min 0 min 420 W/m 13,5 km/h (3 Bft) 100,00 %
20.04.2018 17:28 29,8 C 30,0 C 26,7 C 42 % 0 lf 1019,4 hPa 0,0 l/m 2 min 0 min 402 W/m 15,8 km/h (3 Bft) 95,65 %
20.04.2018 17:30 29,8 C 30,0 C 26,7 C 41 % 0 lf 1019,5 hPa 0,0 l/m 2 min 0 min 406 W/m 20,3 km/h (4 Bft) 100,00 %
20.04.2018 17:32 29,7 C 30,0 C 26,7 C 42 % 0 lf 1019,5 hPa 0,0 l/m 2 min 0 min 406 W/m 22,5 km/h (4 Bft) 97,87 %
20.04.2018 17:34 29,7 C 30,0 C 27,2 C 44 % 0 lf 1019,5 hPa 0,0 l/m 2 min 0 min 396 W/m 11,3 km/h (2 Bft) 95,74 %
20.04.2018 17:36 29,7 C 30,0 C 26,7 C 42 % 0 lf 1019,5 hPa 0,0 l/m 2 min 0 min 383 W/m 20,3 km/h (4 Bft) 93,62 %
20.04.2018 17:38 29,6 C 30,0 C 26,7 C 42 % 0 lf 1019,5 hPa 0,0 l/m 2 min 0 min 367 W/m 15,8 km/h (3 Bft) 97,87 %
20.04.2018 17:40 29,6 C 29,4 C 26,7 C 42 % 0 lf 1019,5 hPa 0,0 l/m 2 min 0 min 351 W/m 18,0 km/h (3 Bft) 95,65 %
20.04.2018 17:42 29,6 C 29,4 C 27,2 C 41 % 0 lf 1019,4 hPa 0,0 l/m 2 min 0 min 353 W/m 13,5 km/h (3 Bft) 95,74 %
20.04.2018 17:44 29,6 C 29,4 C 26,7 C 43 % 0 lf 1019,4 hPa 0,0 l/m 2 min 0 min 376 W/m 11,3 km/h (2 Bft) 95,74 %
20.04.2018 17:46 29,6 C 30,0 C 27,2 C 42 % 0 lf 1019,4 hPa 0,0 l/m 2 min 0 min 383 W/m 11,3 km/h (2 Bft) 97,92 %
20.04.2018 17:48 29,6 C 29,4 C 27,2 C 41 % 0 lf 1019,3 hPa 0,0 l/m 2 min 0 min 377 W/m 11,3 km/h (2 Bft) 95,65 %
20.04.2018 17:50 29,6 C 29,4 C 27,2 C 42 % 0 lf 1019,3 hPa 0,0 l/m 2 min 0 min 374 W/m 9,0 km/h (2 Bft) 97,87 %
20.04.2018 17:52 29,6 C 29,4 C 27,2 C 43 % 0 lf 1019,3 hPa 0,0 l/m 2 min 0 min 373 W/m 11,3 km/h (2 Bft) 97,87 %
20.04.2018 17:54 29,6 C 30,0 C 27,2 C 43 % 0 lf 1019,3 hPa 0,0 l/m 2 min 0 min 366 W/m 9,0 km/h (2 Bft) 97,87 %
20.04.2018 17:56 29,6 C 30,0 C 27,2 C 43 % 0 lf 1019,3 hPa 0,0 l/m 2 min 0 min 351 W/m 13,5 km/h (3 Bft) 97,87 %
20.04.2018 17:58 29,6 C 30,0 C 27,2 C 42 % 0 lf 1019,3 hPa 0,0 l/m 2 min 0 min 334 W/m 11,3 km/h (2 Bft) 95,65 %
20.04.2018 18:00 29,6 C 30,0 C 26,7 C 42 % 0 lf 1019,3 hPa 0,0 l/m 2 min 0 min 329 W/m 9,0 km/h (2 Bft) 93,62 %
20.04.2018 18:02 29,6 C 30,0 C 26,7 C 44 % 0 lf 1019,3 hPa 0,0 l/m 2 min 0 min 323 W/m 11,3 km/h (2 Bft) 95,74 %
20.04.2018 18:04 29,6 C 30,0 C 26,7 C 43 % 0 lf 1019,3 hPa 0,0 l/m 2 min 0 min 318 W/m 15,8 km/h (3 Bft) 95,74 %
20.04.2018 18:07 29,6 C 29,4 C 26,7 C 43 % 0 lf 1019,2 hPa 0,0 l/m 3 min 0 min 315 W/m 13,5 km/h (3 Bft) 95,74 %
20.04.2018 18:10 29,6 C 29,4 C 26,7 C 43 % 0 lf 1019,2 hPa 0,0 l/m 3 min 0 min 314 W/m 13,5 km/h (3 Bft) 98,58 %
20.04.2018 18:12 29,6 C 29,4 C 26,1 C 43 % 0 lf 1019,2 hPa 0,0 l/m 2 min 0 min 301 W/m 13,5 km/h (3 Bft) 93,62 %
20.04.2018 18:14 29,5 C 29,4 C 26,1 C 44 % 0 lf 1019,3 hPa 0,0 l/m 2 min 0 min 290 W/m 13,5 km/h (3 Bft) 97,14 %
20.04.2018 18:16 29,5 C 29,4 C 26,1 C 44 % 0 lf 1019,2 hPa 0,0 l/m 2 min 0 min 284 W/m 13,5 km/h (3 Bft) 91,49 %
20.04.2018 18:18 29,4 C 29,4 C 26,1 C 45 % 0 lf 1019,1 hPa 0,0 l/m 2 min 0 min 276 W/m 13,5 km/h (3 Bft) 100,00 %
20.04.2018 18:20 29,4 C 29,4 C 26,1 C 45 % 0 lf 1019,2 hPa 0,0 l/m 2 min 0 min 273 W/m 9,0 km/h (2 Bft) 100,00 %
20.04.2018 18:22 29,4 C 29,4 C 26,1 C 45 % 0 lf 1019,2 hPa 0,0 l/m 2 min 0 min 267 W/m 11,3 km/h (2 Bft) 100,00 %
20.04.2018 18:24 29,4 C 29,4 C 26,1 C 45 % 0 lf 1019,2 hPa 0,0 l/m 2 min 0 min 263 W/m 13,5 km/h (3 Bft) 97,87 %
20.04.2018 18:26 29,4 C 28,9 C 25,6 C 45 % 0 lf 1019,2 hPa 0,0 l/m 2 min 0 min 239 W/m 11,3 km/h (2 Bft) 95,92 %
20.04.2018 18:28 29,3 C 28,9 C 25,6 C 43 % 0 lf 1019,2 hPa 0,0 l/m 0 min 0 min 144 W/m 15,8 km/h (3 Bft) 94,44 %
20.04.2018 18:30 29,2 C 28,3 C 25,6 C 43 % 0 lf 1019,2 hPa 0,0 l/m 0 min 0 min 99 W/m 18,0 km/h (3 Bft) 100,00 %
20.04.2018 18:32 29,2 C 28,3 C 25,0 C 44 % 0 lf 1019,2 hPa 0,0 l/m 0 min 0 min 94 W/m 9,0 km/h (2 Bft) 97,87 %
20.04.2018 18:34 29,1 C 27,8 C 24,4 C 45 % 0 lf 1019,2 hPa 0,0 l/m 0 min 0 min 90 W/m 6,8 km/h (2 Bft) 100,00 %
20.04.2018 18:36 29,1 C 27,8 C 24,4 C 45 % 0 lf 1019,1 hPa 0,0 l/m 0 min 0 min 89 W/m 11,3 km/h (2 Bft) 95,74 %
20.04.2018 18:38 29,0 C 27,8 C 24,4 C 45 % 0 lf 1019,2 hPa 0,0 l/m 0 min 0 min 87 W/m 9,0 km/h (2 Bft) 97,83 %
20.04.2018 18:40 28,9 C 27,2 C 23,9 C 45 % 0 lf 1019,2 hPa 0,0 l/m 0 min 0 min 86 W/m 11,3 km/h (2 Bft) 97,14 %
20.04.2018 18:42 28,8 C 27,2 C 23,9 C 46 % 0 lf 1019,2 hPa 0,0 l/m 0 min 0 min 87 W/m 11,3 km/h (2 Bft) 95,74 %
20.04.2018 18:44 28,7 C 27,2 C 23,9 C 46 % 0 lf 1019,1 hPa 0,0 l/m 2 min 0 min 152 W/m 9,0 km/h (2 Bft) 97,87 %
20.04.2018 18:46 28,7 C 27,2 C 23,9 C 45 % 0 lf 1019,1 hPa 0,0 l/m 2 min 0 min 179 W/m 11,3 km/h (2 Bft) 93,62 %
20.04.2018 18:48 28,6 C 27,2 C 23,9 C 46 % 0 lf 1019,1 hPa 0,0 l/m 2 min 0 min 182 W/m 6,8 km/h (2 Bft) 95,74 %
20.04.2018 18:50 28,5 C 27,8 C 23,9 C 46 % 0 lf 1019,1 hPa 0,0 l/m 2 min 0 min 184 W/m 9,0 km/h (2 Bft) 95,74 %
20.04.2018 18:52 28,5 C 27,8 C 24,4 C 46 % 0 lf 1019,1 hPa 0,0 l/m 2 min 0 min 182 W/m 6,8 km/h (2 Bft) 95,65 %
20.04.2018 18:54 28,4 C 27,8 C 24,4 C 46 % 0 lf 1019,1 hPa 0,0 l/m 2 min 0 min 173 W/m 9,0 km/h (2 Bft) 93,62 %
20.04.2018 18:56 28,4 C 27,8 C 24,4 C 46 % 0 lf 1019,1 hPa 0,0 l/m 2 min 0 min 172 W/m 11,3 km/h (2 Bft) 93,62 %
20.04.2018 18:58 28,4 C 27,8 C 24,4 C 46 % 0 lf 1019,1 hPa 0,0 l/m 2 min 0 min 166 W/m 9,0 km/h (2 Bft) 91,49 %
20.04.2018 19:00 28,3 C 27,8 C 24,4 C 46 % 0 lf 1019,0 hPa 0,0 l/m 2 min 0 min 166 W/m 11,3 km/h (2 Bft) 89,36 %
20.04.2018 19:02 28,3 C 27,8 C 24,4 C 46 % 0 lf 1019,1 hPa 0,0 l/m 2 min 0 min 171 W/m 6,8 km/h (2 Bft) 93,62 %
20.04.2018 19:04 28,3 C 27,8 C 24,4 C 47 % 0 lf 1019,0 hPa 0,0 l/m 2 min 0 min 166 W/m 6,8 km/h (2 Bft) 93,48 %
20.04.2018 19:06 28,3 C 27,8 C 24,4 C 47 % 0 lf 1019,1 hPa 0,0 l/m 2 min 0 min 158 W/m 6,8 km/h (2 Bft) 91,49 %
20.04.2018 19:08 28,2 C 27,8 C 24,4 C 47 % 0 lf 1019,0 hPa 0,0 l/m 2 min 0 min 150 W/m 9,0 km/h (2 Bft) 93,62 %
20.04.2018 19:10 28,2 C 27,8 C 23,9 C 47 % 0 lf 1019,1 hPa 0,0 l/m 2 min 0 min 140 W/m 11,3 km/h (2 Bft) 95,74 %
20.04.2018 19:12 28,2 C 27,8 C 23,9 C 47 % 0 lf 1019,1 hPa 0,0 l/m 2 min 0 min 128 W/m 11,3 km/h (2 Bft) 93,62 %
20.04.2018 19:14 28,2 C 27,8 C 23,9 C 47 % 0 lf 1019,0 hPa 0,0 l/m 0 min 0 min 101 W/m 9,0 km/h (2 Bft) 93,62 %
20.04.2018 19:16 28,1 C 27,2 C 23,9 C 47 % 0 lf 1019,0 hPa 0,0 l/m 0 min 0 min 99 W/m 18,0 km/h (3 Bft) 95,65 %
20.04.2018 19:18 28,0 C 27,2 C 23,9 C 48 % 0 lf 1019,0 hPa 0,0 l/m 0 min 0 min 92 W/m 11,3 km/h (2 Bft) 95,74 %
20.04.2018 19:20 27,9 C 27,2 C 23,9 C 48 % 0 lf 1019,0 hPa 0,0 l/m 0 min 0 min 80 W/m 13,5 km/h (3 Bft) 91,49 %
20.04.2018 19:22 27,8 C 26,7 C 23,9 C 48 % 0 lf 1019,0 hPa 0,0 l/m 0 min 0 min 75 W/m 11,3 km/h (2 Bft) 95,74 %
20.04.2018 19:24 27,8 C 26,7 C 23,3 C 48 % 0 lf 1019,0 hPa 0,0 l/m 0 min 0 min 74 W/m 11,3 km/h (2 Bft) 95,74 %
20.04.2018 19:26 27,7 C 26,7 C 23,3 C 48 % 0 lf 1019,0 hPa 0,0 l/m 0 min 0 min 73 W/m 11,3 km/h (2 Bft) 95,74 %
20.04.2018 19:28 27,7 C 26,7 C 23,3 C 49 % 0 lf 1019,0 hPa 0,0 l/m 0 min 0 min 67 W/m 6,8 km/h (2 Bft) 97,83 %
20.04.2018 19:30 27,7 C 26,1 C 22,8 C 49 % 0 lf 1019,0 hPa 0,0 l/m 0 min 0 min 63 W/m 4,5 km/h (1 Bft) 95,74 %
20.04.2018 19:32 27,6 C 26,1 C 22,8 C 49 % 0 lf 1018,9 hPa 0,0 l/m 0 min 0 min 60 W/m 13,5 km/h (3 Bft) 95,74 %
20.04.2018 19:34 27,6 C 26,1 C 22,2 C 49 % 0 lf 1018,9 hPa 0,0 l/m 0 min 0 min 58 W/m 9,0 km/h (2 Bft) 93,62 %
20.04.2018 19:36 27,5 C 26,1 C 22,8 C 48 % 0 lf 1018,9 hPa 0,0 l/m 0 min 0 min 59 W/m 9,0 km/h (2 Bft) 95,74 %
20.04.2018 19:38 27,4 C 26,1 C 22,8 C 49 % 0 lf 1018,9 hPa 0,0 l/m 0 min 0 min 55 W/m 9,0 km/h (2 Bft) 95,74 %
20.04.2018 19:40 27,3 C 26,1 C 22,8 C 48 % 0 lf 1018,9 hPa 0,0 l/m 0 min 0 min 54 W/m 11,3 km/h (2 Bft) 95,65 %
20.04.2018 19:42 27,3 C 25,6 C 22,2 C 48 % 0 lf 1018,9 hPa 0,0 l/m 0 min 0 min 52 W/m 9,0 km/h (2 Bft) 93,62 %
20.04.2018 19:44 27,2 C 25,6 C 22,2 C 49 % 0 lf 1019,0 hPa 0,0 l/m 0 min 0 min 50 W/m 22,5 km/h (4 Bft) 95,74 %
20.04.2018 19:46 27,2 C 25,6 C 22,2 C 49 % 0 lf 1018,9 hPa 0,0 l/m 0 min 0 min 50 W/m 22,5 km/h (4 Bft) 97,87 %
20.04.2018 19:48 27,1 C 25,0 C 22,2 C 50 % 0 lf 1019,0 hPa 0,0 l/m 0 min 0 min 49 W/m 15,8 km/h (3 Bft) 100,00 %
20.04.2018 19:50 26,9 C 25,0 C 22,2 C 51 % 0 lf 1018,9 hPa 0,0 l/m 0 min 0 min 45 W/m 20,3 km/h (4 Bft) 97,87 %
20.04.2018 19:52 26,8 C 25,0 C 22,2 C 51 % 0 lf 1019,0 hPa 0,0 l/m 0 min 0 min 40 W/m 13,5 km/h (3 Bft) 100,00 %
20.04.2018 19:54 26,7 C 24,4 C 22,2 C 52 % 0 lf 1019,0 hPa 0,0 l/m 0 min 0 min 35 W/m 18,0 km/h (3 Bft) 97,87 %
20.04.2018 19:56 26,6 C 24,4 C 22,2 C 53 % 0 lf 1019,0 hPa 0,0 l/m 0 min 0 min 31 W/m 11,3 km/h (2 Bft) 95,74 %
20.04.2018 19:58 26,4 C 23,9 C 21,7 C 54 % 0 lf 1019,0 hPa 0,0 l/m 0 min 0 min 27 W/m 13,5 km/h (3 Bft) 97,87 %
20.04.2018 20:00 26,3 C 23,9 C 21,7 C 54 % 0 lf 1019,1 hPa 0,0 l/m 0 min 0 min 26 W/m 9,0 km/h (2 Bft) 97,87 %
20.04.2018 20:02 26,2 C 23,9 C 21,1 C 55 % 0 lf 1019,0 hPa 0,0 l/m 0 min 0 min 25 W/m 11,3 km/h (2 Bft) 97,87 %
20.04.2018 20:04 26,1 C 23,3 C 21,1 C 55 % 0 lf 1019,1 hPa 0,0 l/m 0 min 0 min 24 W/m 13,5 km/h (3 Bft) 93,48 %
20.04.2018 20:06 26,0 C 23,3 C 21,1 C 56 % 0 lf 1019,1 hPa 0,0 l/m 0 min 0 min 23 W/m 13,5 km/h (3 Bft) 97,87 %
20.04.2018 20:08 25,9 C 23,3 C 20,6 C 56 % 0 lf 1019,1 hPa 0,0 l/m 0 min 0 min 23 W/m 9,0 km/h (2 Bft) 95,74 %
20.04.2018 20:10 25,8 C 23,3 C 20,6 C 56 % 0 lf 1019,1 hPa 0,0 l/m 0 min 0 min 21 W/m 9,0 km/h (2 Bft) 97,87 %
20.04.2018 20:12 25,7 C 22,8 C 20,6 C 57 % 0 lf 1019,1 hPa 0,0 l/m 0 min 0 min 19 W/m 15,8 km/h (3 Bft) 97,87 %
20.04.2018 20:14 25,6 C 22,8 C 20,6 C 57 % 0 lf 1019,2 hPa 0,0 l/m 0 min 0 min 19 W/m 13,5 km/h (3 Bft) 95,65 %
20.04.2018 20:16 25,4 C 22,8 C 20,6 C 57 % 0 lf 1019,1 hPa 0,0 l/m 0 min 0 min 19 W/m 13,5 km/h (3 Bft) 97,87 %
20.04.2018 20:18 25,3 C 22,8 C 20,6 C 57 % 0 lf 1019,2 hPa 0,0 l/m 0 min 0 min 19 W/m 22,5 km/h (4 Bft) 97,87 %
20.04.2018 20:20 25,1 C 22,8 C 20,6 C 58 % 0 lf 1019,2 hPa 0,0 l/m 0 min 0 min 18 W/m 20,3 km/h (4 Bft) 97,87 %
20.04.2018 20:22 25,1 C 22,8 C 20,6 C 58 % 0 lf 1019,2 hPa 0,0 l/m 0 min 0 min 17 W/m 15,8 km/h (3 Bft) 93,62 %
20.04.2018 20:24 24,9 C 22,8 C 20,6 C 58 % 0 lf 1019,3 hPa 0,0 l/m 0 min 0 min 16 W/m 18,0 km/h (3 Bft) 97,87 %
20.04.2018 20:26 24,8 C 22,8 C 20,0 C 58 % 0 lf 1019,3 hPa 0,0 l/m 0 min 0 min 14 W/m 9,0 km/h (2 Bft) 97,83 %
20.04.2018 20:28 24,7 C 22,2 C 20,0 C 59 % 0 lf 1019,4 hPa 0,0 l/m 0 min 0 min 13 W/m 18,0 km/h (3 Bft) 97,87 %
20.04.2018 20:30 24,6 C 22,2 C 20,0 C 59 % 0 lf 1019,4 hPa 0,0 l/m 0 min 0 min 12 W/m 15,8 km/h (3 Bft) 93,62 %
20.04.2018 20:32 24,4 C 22,2 C 20,6 C 59 % 0 lf 1019,4 hPa 0,0 l/m 0 min 0 min 11 W/m 13,5 km/h (3 Bft) 89,36 %
20.04.2018 20:34 24,4 C 22,2 C 20,0 C 59 % 0 lf 1019,4 hPa 0,0 l/m 0 min 0 min 11 W/m 13,5 km/h (3 Bft) 93,62 %
20.04.2018 20:36 24,2 C 22,2 C 20,0 C 59 % 0 lf 1019,5 hPa 0,0 l/m 0 min 0 min 9 W/m 13,5 km/h (3 Bft) 95,74 %
20.04.2018 20:38 24,2 C 22,2 C 20,0 C 59 % 0 lf 1019,5 hPa 0,0 l/m 0 min 0 min 8 W/m 15,8 km/h (3 Bft) 97,83 %
20.04.2018 20:40 24,1 C 22,2 C 20,0 C 60 % 0 lf 1019,5 hPa 0,0 l/m 0 min 0 min 7 W/m 13,5 km/h (3 Bft) 95,74 %
20.04.2018 20:42 24,0 C 21,7 C 19,4 C 60 % 0 lf 1019,5 hPa 0,0 l/m 0 min 0 min 6 W/m 11,3 km/h (2 Bft) 93,62 %
20.04.2018 20:44 23,9 C 21,7 C 18,9 C 60 % 0 lf 1019,5 hPa 0,0 l/m 0 min 0 min 5 W/m 9,0 km/h (2 Bft) 97,87 %
20.04.2018 20:46 23,8 C 21,7 C 18,9 C 60 % 0 lf 1019,5 hPa 0,0 l/m 0 min 0 min 5 W/m 11,3 km/h (2 Bft) 97,87 %
20.04.2018 20:48 23,8 C 21,7 C 18,3 C 60 % 0 lf 1019,6 hPa 0,0 l/m 0 min 0 min 5 W/m 6,8 km/h (2 Bft) 91,49 %
20.04.2018 20:50 23,7 C 21,1 C 18,3 C 60 % 0 lf 1019,7 hPa 0,0 l/m 0 min 0 min 0 W/m 6,8 km/h (2 Bft) 97,83 %
20.04.2018 20:52 23,7 C 21,1 C 17,8 C 61 % 0 lf 1019,7 hPa 0,0 l/m 0 min 0 min 0 W/m 6,8 km/h (2 Bft) 97,87 %
20.04.2018 20:54 23,6 C 21,1 C 17,8 C 61 % 0 lf 1019,6 hPa 0,0 l/m 0 min 0 min 0 W/m 6,8 km/h (2 Bft) 97,87 %
20.04.2018 20:56 23,6 C 21,1 C 17,2 C 61 % 0 lf 1019,7 hPa 0,0 l/m 0 min 0 min 0 W/m 6,8 km/h (2 Bft) 95,74 %
20.04.2018 20:58 23,4 C 20,6 C 17,2 C 61 % 0 lf 1019,8 hPa 0,0 l/m 0 min 0 min 0 W/m 6,8 km/h (2 Bft) 97,87 %
20.04.2018 21:00 23,4 C 20,6 C 17,2 C 61 % 0 lf 1019,8 hPa 0,0 l/m 0 min 0 min 0 W/m 9,0 km/h (2 Bft) 97,87 %
20.04.2018 21:02 23,3 C 20,6 C 17,2 C 61 % 0 lf 1019,8 hPa 0,0 l/m 0 min 0 min 0 W/m 6,8 km/h (2 Bft) 97,83 %
20.04.2018 21:04 23,3 C 20,6 C 16,7 C 61 % 0 lf 1019,8 hPa 0,0 l/m 0 min 0 min 0 W/m 6,8 km/h (2 Bft) 95,74 %
20.04.2018 21:06 23,2 C 20,0 C 16,7 C 61 % 0 lf 1019,8 hPa 0,0 l/m 0 min 0 min 0 W/m 6,8 km/h (2 Bft) 97,87 %
20.04.2018 21:08 23,1 C 20,0 C 16,7 C 62 % 0 lf 1019,8 hPa 0,0 l/m 0 min 0 min 0 W/m 6,8 km/h (2 Bft) 97,87 %
20.04.2018 21:10 23,1 C 20,0 C 16,7 C 62 % 0 lf 1019,8 hPa 0,0 l/m 0 min 0 min 0 W/m 6,8 km/h (2 Bft) 97,87 %
20.04.2018 21:12 23,0 C 20,0 C 16,7 C 62 % 0 lf 1019,8 hPa 0,0 l/m 0 min 0 min 0 W/m 6,8 km/h (2 Bft) 97,87 %
20.04.2018 21:14 22,9 C 20,0 C 16,1 C 62 % 0 lf 1019,8 hPa 0,0 l/m 0 min 0 min 0 W/m 6,8 km/h (2 Bft) 97,83 %
20.04.2018 21:16 22,8 C 20,0 C 16,1 C 63 % 0 lf 1019,9 hPa 0,0 l/m 0 min 0 min 0 W/m 6,8 km/h (2 Bft) 97,87 %
20.04.2018 21:18 22,7 C 19,4 C 16,1 C 63 % 0 lf 1019,9 hPa 0,0 l/m 0 min 0 min 0 W/m 4,5 km/h (1 Bft) 100,00 %
20.04.2018 21:20 22,7 C 19,4 C 16,1 C 63 % 0 lf 1019,9 hPa 0,0 l/m 0 min 0 min 0 W/m 4,5 km/h (1 Bft) 100,00 %
20.04.2018 21:22 22,6 C 19,4 C 16,1 C 63 % 0 lf 1020,0 hPa 0,0 l/m 0 min 0 min 0 W/m 4,5 km/h (1 Bft) 100,00 %
20.04.2018 21:24 22,5 C 19,4 C 16,1 C 63 % 0 lf 1019,9 hPa 0,0 l/m 0 min 0 min 0 W/m 6,8 km/h (2 Bft) 100,00 %
20.04.2018 21:26 22,4 C 19,4 C 16,1 C 63 % 0 lf 1020,0 hPa 0,0 l/m 0 min 0 min 0 W/m 4,5 km/h (1 Bft) 100,00 %
20.04.2018 21:28 22,3 C 19,4 C 16,1 C 64 % 0 lf 1019,9 hPa 0,0 l/m 0 min 0 min 0 W/m 4,5 km/h (1 Bft) 97,87 %
20.04.2018 21:30 22,3 C 19,4 C 15,6 C 64 % 0 lf 1020,0 hPa 0,0 l/m 0 min 0 min 0 W/m 6,8 km/h (2 Bft) 100,00 %
20.04.2018 21:32 22,2 C 19,4 C 15,6 C 64 % 0 lf 1020,0 hPa 0,0 l/m 0 min 0 min 0 W/m 6,8 km/h (2 Bft) 100,00 %
20.04.2018 21:34 22,1 C 19,4 C 15,6 C 64 % 0 lf 1019,9 hPa 0,0 l/m 0 min 0 min 0 W/m 6,8 km/h (2 Bft) 100,00 %
20.04.2018 21:36 22,1 C 19,4 C 15,6 C 64 % 0 lf 1020,0 hPa 0,0 l/m 0 min 0 min 0 W/m 4,5 km/h (1 Bft) 100,00 %
20.04.2018 21:38 22,0 C 19,4 C 15,6 C 64 % 0 lf 1020,0 hPa 0,0 l/m 0 min 0 min 0 W/m 4,5 km/h (1 Bft) 100,00 %
20.04.2018 21:40 21,9 C 18,9 C 15,6 C 64 % 0 lf 1020,0 hPa 0,0 l/m 0 min 0 min 0 W/m 4,5 km/h (1 Bft) 95,74 %
20.04.2018 21:42 21,8 C 18,9 C 15,0 C 65 % 0 lf 1019,9 hPa 0,0 l/m 0 min 0 min 0 W/m 4,5 km/h (1 Bft) 100,00 %
20.04.2018 21:44 21,8 C 18,9 C 15,0 C 65 % 0 lf 1020,0 hPa 0,0 l/m 0 min 0 min 0 W/m 4,5 km/h (1 Bft) 95,74 %
20.04.2018 21:46 21,7 C 18,9 C 15,0 C 65 % 0 lf 1019,9 hPa 0,0 l/m 0 min 0 min 0 W/m 2,3 km/h (1 Bft) 100,00 %
20.04.2018 21:48 21,6 C 18,9 C 15,0 C 65 % 0 lf 1020,0 hPa 0,0 l/m 0 min 0 min 0 W/m 2,3 km/h (1 Bft) 100,00 %
20.04.2018 21:50 21,6 C 18,9 C 15,0 C 65 % 0 lf 1020,0 hPa 0,0 l/m 0 min 0 min 0 W/m 4,5 km/h (1 Bft) 95,74 %
20.04.2018 21:52 21,4 C 18,9 C 15,0 C 66 % 0 lf 1020,0 hPa 0,0 l/m 0 min 0 min 0 W/m 2,3 km/h (1 Bft) 100,00 %
20.04.2018 21:54 21,4 C 18,3 C 15,0 C 66 % 0 lf 1020,0 hPa 0,0 l/m 0 min 0 min 0 W/m 2,3 km/h (1 Bft) 100,00 %
20.04.2018 21:56 21,3 C 18,3 C 15,0 C 66 % 0 lf 1020,0 hPa 0,0 l/m 0 min 0 min 0 W/m 2,3 km/h (1 Bft) 100,00 %
20.04.2018 21:58 21,3 C 18,3 C 15,0 C 66 % 0 lf 1020,0 hPa 0,0 l/m 0 min 0 min 0 W/m 2,3 km/h (1 Bft) 97,87 %
20.04.2018 22:00 21,2 C 18,3 C 15,0 C 66 % 0 lf 1020,0 hPa 0,0 l/m 0 min 0 min 0 W/m 2,3 km/h (1 Bft) 95,65 %
20.04.2018 22:02 21,1 C 18,3 C 14,4 C 67 % 0 lf 1020,0 hPa 0,0 l/m 0 min 0 min 0 W/m 2,3 km/h (1 Bft) 100,00 %
20.04.2018 22:04 21,1 C 18,3 C 14,4 C 67 % 0 lf 1020,0 hPa 0,0 l/m 0 min 0 min 0 W/m 4,5 km/h (1 Bft) 95,74 %
20.04.2018 22:06 21,0 C 18,3 C 14,4 C 67 % 0 lf 1020,0 hPa 0,0 l/m 0 min 0 min 0 W/m 4,5 km/h (1 Bft) 95,74 %
20.04.2018 22:08 21,0 C 18,3 C 14,4 C 67 % 0 lf 1020,0 hPa 0,0 l/m 0 min 0 min 0 W/m 2,3 km/h (1 Bft) 93,62 %
20.04.2018 22:10 20,9 C 18,3 C 14,4 C 67 % 0 lf 1020,0 hPa 0,0 l/m 0 min 0 min 0 W/m 2,3 km/h (1 Bft) 95,74 %
20.04.2018 22:12 20,8 C 18,3 C 14,4 C 67 % 0 lf 1020,1 hPa 0,0 l/m 0 min 0 min 0 W/m 4,5 km/h (1 Bft) 95,65 %
20.04.2018 22:14 20,8 C 18,3 C 14,4 C 68 % 0 lf 1020,0 hPa 0,0 l/m 0 min 0 min 0 W/m 4,5 km/h (1 Bft) 95,74 %
20.04.2018 22:16 20,7 C 17,8 C 14,4 C 68 % 0 lf 1020,0 hPa 0,0 l/m 0 min 0 min 0 W/m 4,5 km/h (1 Bft) 95,74 %
20.04.2018 22:18 20,6 C 17,8 C 14,4 C 68 % 0 lf 1020,0 hPa 0,0 l/m 0 min 0 min 0 W/m 4,5 km/h (1 Bft) 95,74 %
20.04.2018 22:20 20,6 C 17,8 C 14,4 C 68 % 0 lf 1020,0 hPa 0,0 l/m 0 min 0 min 0 W/m 2,3 km/h (1 Bft) 95,74 %
20.04.2018 22:22 20,5 C 17,8 C 14,4 C 68 % 0 lf 1020,0 hPa 0,0 l/m 0 min 0 min 0 W/m 4,5 km/h (1 Bft) 95,74 %
20.04.2018 22:24 20,4 C 17,8 C 14,4 C 68 % 0 lf 1020,0 hPa 0,0 l/m 0 min 0 min 0 W/m 2,3 km/h (1 Bft) 95,65 %
20.04.2018 22:26 20,4 C 17,8 C 14,4 C 69 % 0 lf 1020,0 hPa 0,0 l/m 0 min 0 min 0 W/m 4,5 km/h (1 Bft) 93,62 %
20.04.2018 22:28 20,3 C 17,8 C 14,4 C 69 % 0 lf 1020,1 hPa 0,0 l/m 0 min 0 min 0 W/m 4,5 km/h (1 Bft) 95,74 %
20.04.2018 22:30 20,3 C 17,8 C 14,4 C 69 % 0 lf 1020,0 hPa 0,0 l/m 0 min 0 min 0 W/m 4,5 km/h (1 Bft) 93,62 %
20.04.2018 22:32 20,2 C 17,8 C 14,4 C 69 % 0 lf 1020,0 hPa 0,0 l/m 0 min 0 min 0 W/m 6,8 km/h (2 Bft) 93,62 %
20.04.2018 22:34 20,2 C 17,8 C 14,4 C 70 % 0 lf 1020,0 hPa 0,0 l/m 0 min 0 min 0 W/m 6,8 km/h (2 Bft) 93,62 %
20.04.2018 22:36 20,1 C 17,8 C 14,4 C 69 % 0 lf 1020,0 hPa 0,0 l/m 0 min 0 min 0 W/m 9,0 km/h (2 Bft) 95,65 %
20.04.2018 22:38 20,0 C 17,8 C 14,4 C 69 % 0 lf 1020,0 hPa 0,0 l/m 0 min 0 min 0 W/m 4,5 km/h (1 Bft) 93,62 %
20.04.2018 22:40 19,9 C 17,8 C 14,4 C 69 % 0 lf 1020,0 hPa 0,0 l/m 0 min 0 min 0 W/m 6,8 km/h (2 Bft) 89,36 %
20.04.2018 22:42 19,9 C 17,8 C 14,4 C 70 % 0 lf 1020,0 hPa 0,0 l/m 0 min 0 min 0 W/m 4,5 km/h (1 Bft) 87,23 %
20.04.2018 22:44 19,8 C 17,8 C 14,4 C 70 % 0 lf 1019,9 hPa 0,0 l/m 0 min 0 min 0 W/m 6,8 km/h (2 Bft) 89,36 %
20.04.2018 22:46 19,8 C 17,8 C 14,4 C 70 % 0 lf 1019,9 hPa 0,0 l/m 0 min 0 min 0 W/m 6,8 km/h (2 Bft) 91,49 %
20.04.2018 22:48 19,7 C 17,8 C 14,4 C 70 % 0 lf 1020,0 hPa 0,0 l/m 0 min 0 min 0 W/m 6,8 km/h (2 Bft) 86,96 %
20.04.2018 22:50 19,7 C 17,8 C 14,4 C 70 % 0 lf 1020,0 hPa 0,0 l/m 0 min 0 min 0 W/m 6,8 km/h (2 Bft) 93,62 %
20.04.2018 22:52 19,6 C 17,8 C 14,4 C 70 % 0 lf 1020,0 hPa 0,0 l/m 0 min 0 min 0 W/m 6,8 km/h (2 Bft) 91,49 %
20.04.2018 22:54 19,6 C 17,8 C 14,4 C 70 % 0 lf 1020,1 hPa 0,0 l/m 0 min 0 min 0 W/m 4,5 km/h (1 Bft) 89,36 %
20.04.2018 22:56 19,5 C 17,8 C 14,4 C 70 % 0 lf 1020,1 hPa 0,0 l/m 0 min 0 min 0 W/m 2,3 km/h (1 Bft) 95,74 %
20.04.2018 22:58 19,4 C 17,2 C 13,9 C 70 % 0 lf 1020,0 hPa 0,0 l/m 0 min 0 min 0 W/m 4,5 km/h (1 Bft) 89,13 %
20.04.2018 23:00 19,4 C 17,2 C 13,9 C 70 % 0 lf 1020,0 hPa 0,0 l/m 0 min 0 min 0 W/m 4,5 km/h (1 Bft) 93,62 %
20.04.2018 23:02 19,4 C 17,2 C 13,9 C 70 % 0 lf 1020,1 hPa 0,0 l/m 0 min 0 min 0 W/m 4,5 km/h (1 Bft) 93,62 %
20.04.2018 23:04 19,3 C 17,2 C 13,9 C 70 % 0 lf 1020,1 hPa 0,0 l/m 0 min 0 min 0 W/m 4,5 km/h (1 Bft) 93,62 %
20.04.2018 23:06 19,3 C 17,2 C 13,9 C 70 % 0 lf 1020,0 hPa 0,0 l/m 0 min 0 min 0 W/m 4,5 km/h (1 Bft) 93,62 %
20.04.2018 23:08 19,2 C 17,2 C 13,9 C 70 % 0 lf 1020,0 hPa 0,0 l/m 0 min 0 min 0 W/m 2,3 km/h (1 Bft) 91,49 %
20.04.2018 23:10 19,2 C 17,2 C 13,9 C 70 % 0 lf 1020,1 hPa 0,0 l/m 0 min 0 min 0 W/m 4,5 km/h (1 Bft) 95,65 %
20.04.2018 23:12 19,2 C 17,2 C 13,9 C 70 % 0 lf 1020,1 hPa 0,0 l/m 0 min 0 min 0 W/m 4,5 km/h (1 Bft) 95,74 %
20.04.2018 23:14 19,1 C 16,7 C 13,9 C 70 % 0 lf 1020,0 hPa 0,0 l/m 0 min 0 min 0 W/m 4,5 km/h (1 Bft) 95,74 %
20.04.2018 23:16 19,1 C 16,7 C 13,9 C 70 % 0 lf 1020,0 hPa 0,0 l/m 0 min 0 min 0 W/m 4,5 km/h (1 Bft) 93,62 %
20.04.2018 23:18 19,0 C 16,7 C 13,9 C 70 % 0 lf 1020,0 hPa 0,0 l/m 0 min 0 min 0 W/m 4,5 km/h (1 Bft) 95,74 %
20.04.2018 23:20 18,9 C 16,7 C 13,9 C 70 % 0 lf 1020,0 hPa 0,0 l/m 0 min 0 min 0 W/m 4,5 km/h (1 Bft) 97,87 %
20.04.2018 23:22 18,9 C 16,7 C 13,9 C 70 % 0 lf 1020,1 hPa 0,0 l/m 0 min 0 min 0 W/m 4,5 km/h (1 Bft) 89,13 %
20.04.2018 23:24 18,9 C 16,7 C 13,9 C 70 % 0 lf 1020,1 hPa 0,0 l/m 0 min 0 min 0 W/m 6,8 km/h (2 Bft) 95,74 %
20.04.2018 23:26 18,8 C 16,7 C 13,9 C 70 % 0 lf 1020,0 hPa 0,0 l/m 0 min 0 min 0 W/m 4,5 km/h (1 Bft) 100,00 %
20.04.2018 23:28 18,8 C 16,7 C 13,9 C 70 % 0 lf 1020,1 hPa 0,0 l/m 0 min 0 min 0 W/m 4,5 km/h (1 Bft) 100,00 %
20.04.2018 23:30 18,7 C 16,7 C 13,9 C 70 % 0 lf 1020,1 hPa 0,0 l/m 0 min 0 min 0 W/m 4,5 km/h (1 Bft) 97,87 %
20.04.2018 23:32 18,7 C 16,7 C 13,9 C 70 % 0 lf 1020,0 hPa 0,0 l/m 0 min 0 min 0 W/m 6,8 km/h (2 Bft) 100,00 %
20.04.2018 23:34 18,7 C 16,7 C 13,9 C 70 % 0 lf 1020,0 hPa 0,0 l/m 0 min 0 min 0 W/m 4,5 km/h (1 Bft) 93,48 %
20.04.2018 23:36 18,6 C 16,7 C 13,9 C 71 % 0 lf 1020,0 hPa 0,0 l/m 0 min 0 min 0 W/m 4,5 km/h (1 Bft) 100,00 %
20.04.2018 23:38 18,6 C 16,7 C 13,9 C 70 % 0 lf 1020,0 hPa 0,0 l/m 0 min 0 min 0 W/m 2,3 km/h (1 Bft) 95,74 %
20.04.2018 23:40 18,6 C 16,7 C 13,3 C 71 % 0 lf 1020,1 hPa 0,0 l/m 0 min 0 min 0 W/m 4,5 km/h (1 Bft) 100,00 %
20.04.2018 23:42 18,5 C 16,7 C 13,9 C 70 % 0 lf 1020,0 hPa 0,0 l/m 0 min 0 min 0 W/m 4,5 km/h (1 Bft) 100,00 %
20.04.2018 23:44 18,4 C 16,7 C 13,3 C 70 % 0 lf 1020,0 hPa 0,0 l/m 0 min 0 min 0 W/m 4,5 km/h (1 Bft) 100,00 %
20.04.2018 23:46 18,4 C 16,7 C 13,3 C 70 % 0 lf 1020,0 hPa 0,0 l/m 0 min 0 min 0 W/m 4,5 km/h (1 Bft) 100,00 %
20.04.2018 23:48 18,4 C 16,7 C 13,3 C 70 % 0 lf 1020,0 hPa 0,0 l/m 0 min 0 min 0 W/m 4,5 km/h (1 Bft) 100,00 %
20.04.2018 23:50 18,3 C 16,7 C 13,3 C 70 % 0 lf 1020,0 hPa 0,0 l/m 0 min 0 min 0 W/m 4,5 km/h (1 Bft) 97,87 %
20.04.2018 23:52 18,3 C 16,7 C 13,3 C 70 % 0 lf 1019,9 hPa 0,0 l/m 0 min 0 min 0 W/m 2,3 km/h (1 Bft) 97,87 %
20.04.2018 23:54 18,3 C 16,1 C 13,3 C 71 % 0 lf 1019,9 hPa 0,0 l/m 0 min 0 min 0 W/m 2,3 km/h (1 Bft) 100,00 %
20.04.2018 23:56 18,2 C 16,1 C 13,3 C 71 % 0 lf 1020,0 hPa 0,0 l/m 0 min 0 min 0 W/m 2,3 km/h (1 Bft) 100,00 %
20.04.2018 23:58 18,2 C 16,1 C 13,3 C 71 % 0 lf 1020,1 hPa 0,0 l/m 0 min 0 min 0 W/m 2,3 km/h (1 Bft) 100,00 %
_ Min-Zeit 07:02 06:08 04:46 17:18 00:00 19:32 - - - - 04:34 05:43
Minimum _ 12,0 C 11,1 C 8,9 C 40 % 0 lf 1018,9 hPa - - - - 0,0 km/h (0 Bft) 4,76 %
_ Max-Zeit 16:52 13:50 15:22 06:56 00:00 00:24 00:00 09:38 00:00 13:24 15:36 00:58
Maximum _ 29,9 C 36,7 C 33,9 C 84 % 0 lf 1023,0 hPa 0,0 l/m 4 min 0 min 783 W/m 27,0 km/h
W-NW (4 Bft)
100,00 %
Durchschnitt _ 21,1 C 22,3 C 18,7 C 63 % 0 lf 1021,3 hPa #0,0 l/m #11:24 h #0 min. 422 W/m 9,6 km/h (2 Bft) 95,81 %
© 2018 W. Hausmann